Observation data for Canadian on 05/26/2019      Previous  Date  Next       Current Mesonet Observations  Soil Data  Daily Summary Page  Observations in Plain Language
KCA1 260500Z 15005KT 17/17 A2994 RMK A01 T01730171  RH  099%=      5-min Rain = 0
KCA1 260501Z 15005KT 17/17 A2994 RMK A01 T01730171  RH  099%=      5-min Rain = 0
KCA1 260502Z 15005KT 17/17 A2994 RMK A01 T01720171  RH  099%=      5-min Rain = 0
KCA1 260503Z 15004KT 17/17 A2994 RMK A01 T01720170  RH  099%=      5-min Rain = 0
KCA1 260504Z 15005KT 17/17 A2994 RMK A01 T01720171  RH  099%=      5-min Rain = 0
KCA1 260505Z 15004KT 17/17 A2994 RMK A01 T01710171  RH  100%=      5-min Rain = 0
KCA1 260506Z 15005KT 17/17 A2994 RMK A01 T01710171  RH  100%=      5-min Rain = 0
KCA1 260507Z 16005KT 17/17 A2994 RMK A01 T01710171  RH  100%=      5-min Rain = 0
KCA1 260508Z 16004KT 17/17 A2994 RMK A01 T01700171  RH  100%=      5-min Rain = 0
KCA1 260509Z 15004KT 17/17 A2994 RMK A01 T01700170  RH  100%=      5-min Rain = 0
KCA1 260510Z 15004KT 17/17 A2994 RMK A01 T01700170  RH  100%=      5-min Rain = 0
KCA1 260511Z 14004KT 17/17 A2994 RMK A01 T01700170  RH  100%=      5-min Rain = 0
KCA1 260512Z 14004KT 17/17 A2994 RMK A01 T01700170  RH  100%=      5-min Rain = 0
KCA1 260513Z 13004KT 17/17 A2994 RMK A01 T01690169  RH  100%=      5-min Rain = 0
KCA1 260514Z 12004KT 17/17 A2994 RMK A01 T01690169  RH  100%=      5-min Rain = 0
KCA1 260515Z 12004KT 17/17 A2994 RMK A01 T01690169  RH  100%=      5-min Rain = 0
KCA1 260516Z 12003KT 17/17 A2994 RMK A01 T01690169  RH  100%=      5-min Rain = 0
KCA1 260517Z 12004KT 17/17 A2994 RMK A01 T01680168  RH  100%=      5-min Rain = 0
KCA1 260518Z 10004KT 17/17 A2994 RMK A01 T01680168  RH  100%=      5-min Rain = 0
KCA1 260519Z 10003KT 17/17 A2994 RMK A01 T01690169  RH  100%=      5-min Rain = 0
KCA1 260520Z 09003KT 17/17 A2994 RMK A01 T01680168  RH  100%=      5-min Rain = 0
KCA1 260521Z 09003KT 17/17 A2994 RMK A01 T01680168  RH  100%=      5-min Rain = 0
KCA1 260522Z 09003KT 17/17 A2994 RMK A01 T01680168  RH  100%=      5-min Rain = 0
KCA1 260523Z 08003KT 17/17 A2994 RMK A01 T01680168  RH  100%=      5-min Rain = 0
KCA1 260524Z 07004KT 17/17 A2994 RMK A01 T01680168  RH  100%=      5-min Rain = 0
KCA1 260525Z 07004KT 17/17 A2994 RMK A01 T01680168  RH  100%=      5-min Rain = 0
KCA1 260526Z 07004KT 17/17 A2994 RMK A01 T01680168  RH  100%=      5-min Rain = 0
KCA1 260527Z 08005KT 17/17 A2994 RMK A01 T01670168  RH  100%=      5-min Rain = 0
KCA1 260528Z 08005KT 17/17 A2994 RMK A01 T01670167  RH  100%=      5-min Rain = 0
KCA1 260529Z 07006KT 17/17 A2994 RMK A01 T01670167  RH  100%=      5-min Rain = 0
KCA1 260530Z 08006KT 17/17 A2994 RMK A01 T01680168  RH  100%=      5-min Rain = 0
KCA1 260531Z 07007KT 17/17 A2994 RMK A01 T01670167  RH  100%=      5-min Rain = 0
KCA1 260532Z 08008KT 17/17 A2994 RMK A01 T01670167  RH  100%=      5-min Rain = 0
KCA1 260533Z 08007KT 17/17 A2994 RMK A01 T01670168  RH  100%=      5-min Rain = 0
KCA1 260534Z 08008KT 17/17 A2994 RMK A01 T01670168  RH  100%=      5-min Rain = 0
KCA1 260535Z 08007KT 17/17 A2994 RMK A01 T01680168  RH  100%=      5-min Rain = 0
KCA1 260536Z 08007KT 17/17 A2994 RMK A01 T01680168  RH  100%=      5-min Rain = 0
KCA1 260537Z 08008KT 17/17 A2994 RMK A01 T01690169  RH  100%=      5-min Rain = 0
KCA1 260538Z 08008KT 17/17 A2994 RMK A01 T01690169  RH  100%=      5-min Rain = 0
KCA1 260539Z 08008KT 17/17 A2994 RMK A01 T01690169  RH  100%=      5-min Rain = 0
KCA1 260540Z 08008KT 17/17 A2994 RMK A01 T01700170  RH  100%=      5-min Rain = 0
KCA1 260541Z 08008KT 17/17 A2994 RMK A01 T01690170  RH  100%=      5-min Rain = 0
KCA1 260542Z 09007KT 17/17 A2994 RMK A01 T01700170  RH  100%=      5-min Rain = 0
KCA1 260543Z 09007KT 17/17 A2994 RMK A01 T01700170  RH  100%=      5-min Rain = 0
KCA1 260544Z 09007KT 17/17 A2994 RMK A01 T01700170  RH  100%=      5-min Rain = 0
KCA1 260545Z 09008KT 17/17 A2994 RMK A01 T01700170  RH  100%=      5-min Rain = 0
KCA1 260546Z 09007KT 17/17 A2994 RMK A01 T01710170  RH  099%=      5-min Rain = 0
KCA1 260547Z 11009KT 17/17 A2994 RMK A01 T01710169  RH  099%=      5-min Rain = 0
KCA1 260548Z 11007KT 17/17 A2995 RMK A01 T01710169  RH  098%=      5-min Rain = 0
KCA1 260549Z 11007KT 17/17 A2995 RMK A01 T01720168  RH  098%=      5-min Rain = 0
KCA1 260550Z 11007KT 17/17 A2995 RMK A01 T01730168  RH  097%=      5-min Rain = 0
KCA1 260551Z 12007KT 17/17 A2994 RMK A01 T01730167  RH  096%=      5-min Rain = 0
KCA1 260552Z 11007KT 17/17 A2994 RMK A01 T01730167  RH  096%=      5-min Rain = 0
KCA1 260553Z 12006KT 17/17 A2994 RMK A01 T01730167  RH  096%=      5-min Rain = 0
KCA1 260554Z 12007KT 17/17 A2994 RMK A01 T01730166  RH  096%=      5-min Rain = 0
KCA1 260555Z 12006KT 17/17 A2994 RMK A01 T01730166  RH  095%=      5-min Rain = 0
KCA1 260556Z 12008KT 17/17 A2994 RMK A01 T01740166  RH  095%=      5-min Rain = 0
KCA1 260557Z 12007KT 17/17 A2994 RMK A01 T01740165  RH  095%=      5-min Rain = 0
KCA1 260558Z 13007KT 17/17 A2994 RMK A01 T01740165  RH  095%=      5-min Rain = 0
KCA1 260559Z 13008KT 17/17 A2994 RMK A01 T01740165  RH  095%=      5-min Rain = 0
KCA1 260600Z 13008KT 17/17 A2994 RMK A01 T01740166  RH  095%=      5-min Rain = 0
KCA1 260601Z 13007KT 17/17 A2994 RMK A01 T01740165  RH  095%=      5-min Rain = 0
KCA1 260602Z 12008KT 17/17 A2994 RMK A01 T01740166  RH  095%=      5-min Rain = 0
KCA1 260603Z 13008KT 17/17 A2994 RMK A01 T01740166  RH  095%=      5-min Rain = 0
KCA1 260604Z 13008KT 17/17 A2994 RMK A01 T01740165  RH  095%=      5-min Rain = 0
KCA1 260605Z 13008KT 17/17 A2994 RMK A01 T01740165  RH  095%=      5-min Rain = 0
KCA1 260606Z 12007KT 17/17 A2994 RMK A01 T01740165  RH  095%=      5-min Rain = 0
KCA1 260607Z 12007KT 17/17 A2994 RMK A01 T01740165  RH  095%=      5-min Rain = 0
KCA1 260608Z 12007KT 17/17 A2994 RMK A01 T01740165  RH  095%=      5-min Rain = 0
KCA1 260609Z 12007KT 17/17 A2994 RMK A01 T01730165  RH  095%=      5-min Rain = 0
KCA1 260610Z 13007KT 17/17 A2994 RMK A01 T01730165  RH  095%=      5-min Rain = 0
KCA1 260611Z 13007KT 17/17 A2994 RMK A01 T01730165  RH  095%=      5-min Rain = 0
KCA1 260612Z 13008KT 17/17 A2994 RMK A01 T01720165  RH  095%=      5-min Rain = 0
KCA1 260613Z 13006KT 17/17 A2994 RMK A01 T01730165  RH  095%=      5-min Rain = 0
KCA1 260614Z 13006KT 17/17 A2994 RMK A01 T01720165  RH  095%=      5-min Rain = 0
KCA1 260615Z 13008KT 17/17 A2994 RMK A01 T01720165  RH  095%=      5-min Rain = 0
KCA1 260616Z 13008KT 17/17 A2994 RMK A01 T01720165  RH  096%=      5-min Rain = 0
KCA1 260617Z 13008KT 17/17 A2994 RMK A01 T01720165  RH  096%=      5-min Rain = 0
KCA1 260618Z 13008KT 17/17 A2994 RMK A01 T01720165  RH  096%=      5-min Rain = 0
KCA1 260619Z 13008KT 17/17 A2994 RMK A01 T01720165  RH  096%=      5-min Rain = 0
KCA1 260620Z 13009KT 17/17 A2994 RMK A01 T01720165  RH  096%=      5-min Rain = 0
KCA1 260621Z 13009KT 17/17 A2993 RMK A01 T01720166  RH  096%=      5-min Rain = 0
KCA1 260622Z 14009KT 17/17 A2993 RMK A01 T01720165  RH  096%=      5-min Rain = 0
KCA1 260623Z 13009KT 17/17 A2993 RMK A01 T01720165  RH  096%=      5-min Rain = 0
KCA1 260624Z 13010KT 17/17 A2993 RMK A01 T01720166  RH  096%=      5-min Rain = 0
KCA1 260625Z 14009KT 17/17 A2993 RMK A01 T01720166  RH  096%=      5-min Rain = 0
KCA1 260626Z 14009KT 17/17 A2993 RMK A01 T01720165  RH  096%=      5-min Rain = 0
KCA1 260627Z 14010KT 17/17 A2993 RMK A01 T01720166  RH  096%=      5-min Rain = 0
KCA1 260628Z 14009KT 17/17 A2993 RMK A01 T01720166  RH  096%=      5-min Rain = 0
KCA1 260629Z 14010KT 17/17 A2993 RMK A01 T01720166  RH  096%=      5-min Rain = 0
KCA1 260630Z 14009KT 17/17 A2993 RMK A01 T01720166  RH  096%=      5-min Rain = 0
KCA1 260631Z 14010KT 17/17 A2993 RMK A01 T01720166  RH  096%=      5-min Rain = 0
KCA1 260632Z 14010KT 17/17 A2993 RMK A01 T01720166  RH  096%=      5-min Rain = 0
KCA1 260633Z 13010KT 17/17 A2993 RMK A01 T01720166  RH  097%=      5-min Rain = 0
KCA1 260634Z 13010KT 17/17 A2993 RMK A01 T01710166  RH  097%=      5-min Rain = 0
KCA1 260635Z 13010KT 17/17 A2993 RMK A01 T01720166  RH  097%=      5-min Rain = 0
KCA1 260636Z 13011KT 17/17 A2993 RMK A01 T01720166  RH  097%=      5-min Rain = 0
KCA1 260637Z 13010KT 17/17 A2993 RMK A01 T01710166  RH  097%=      5-min Rain = 0
KCA1 260638Z 13009KT 17/17 A2993 RMK A01 T01720166  RH  097%=      5-min Rain = 0
KCA1 260639Z 13009KT 17/17 A2992 RMK A01 T01720166  RH  097%=      5-min Rain = 0
KCA1 260640Z 13011KT 17/17 A2993 RMK A01 T01710166  RH  097%=      5-min Rain = 0
KCA1 260641Z 14012KT 17/17 A2993 RMK A01 T01720166  RH  096%=      5-min Rain = 0
KCA1 260642Z 13010KT 17/17 A2993 RMK A01 T01720166  RH  096%=      5-min Rain = 0
KCA1 260643Z 13009KT 17/17 A2993 RMK A01 T01720166  RH  096%=      5-min Rain = 0
KCA1 260644Z 14010KT 17/17 A2993 RMK A01 T01720166  RH  096%=      5-min Rain = 0
KCA1 260645Z 14009KT 17/17 A2993 RMK A01 T01730167  RH  096%=      5-min Rain = 0
KCA1 260646Z 14010KT 17/17 A2993 RMK A01 T01730167  RH  096%=      5-min Rain = 0
KCA1 260647Z 14008KT 17/17 A2993 RMK A01 T01740168  RH  096%=      5-min Rain = 0
KCA1 260648Z 13008KT 17/17 A2993 RMK A01 T01740168  RH  096%=      5-min Rain = 0
KCA1 260649Z 13007KT 17/17 A2993 RMK A01 T01740167  RH  096%=      5-min Rain = 0
KCA1 260650Z 13007KT 17/17 A2993 RMK A01 T01730167  RH  096%=      5-min Rain = 0
KCA1 260651Z 13007KT 17/17 A2993 RMK A01 T01730167  RH  096%=      5-min Rain = 0
KCA1 260652Z 13009KT 17/17 A2993 RMK A01 T01720166  RH  096%=      5-min Rain = 0
KCA1 260653Z 12007KT 17/17 A2993 RMK A01 T01720167  RH  097%=      5-min Rain = 0
KCA1 260654Z 12006KT 17/17 A2993 RMK A01 T01720167  RH  097%=      5-min Rain = 0
KCA1 260655Z 12007KT 17/17 A2993 RMK A01 T01720167  RH  097%=      5-min Rain = 0
KCA1 260656Z 11006KT 17/17 A2993 RMK A01 T01710167  RH  097%=      5-min Rain = 0
KCA1 260657Z 11005KT 17/17 A2993 RMK A01 T01720167  RH  097%=      5-min Rain = 0
KCA1 260658Z 11007KT 17/17 A2994 RMK A01 T01710167  RH  097%=      5-min Rain = 0
KCA1 260659Z 10006KT 17/17 A2994 RMK A01 T01710167  RH  097%=      5-min Rain = 0
KCA1 260700Z 11005KT 17/17 A2994 RMK A01 T01710167  RH  098%=      5-min Rain = 0
KCA1 260701Z 10006KT 17/17 A2994 RMK A01 T01710167  RH  098%=      5-min Rain = 0
KCA1 260702Z 10006KT 17/17 A2994 RMK A01 T01710167  RH  098%=      5-min Rain = 0
KCA1 260703Z 10006KT 17/17 A2994 RMK A01 T01700167  RH  098%=      5-min Rain = 0
KCA1 260704Z 10007KT 17/17 A2994 RMK A01 T01710167  RH  098%=      5-min Rain = 0
KCA1 260705Z 10007KT 17/17 A2994 RMK A01 T01710168  RH  098%=      5-min Rain = 0
KCA1 260706Z 10008KT 17/17 A2994 RMK A01 T01710168  RH  098%=      5-min Rain = 0
KCA1 260707Z 10008KT 17/17 A2994 RMK A01 T01710168  RH  098%=      5-min Rain = 0
KCA1 260708Z 10007KT 17/17 A2994 RMK A01 T01720169  RH  098%=      5-min Rain = 0
KCA1 260709Z 10007KT 17/17 A2994 RMK A01 T01720169  RH  098%=      5-min Rain = 0
KCA1 260710Z 10007KT 17/17 A2994 RMK A01 T01720169  RH  098%=      5-min Rain = 0
KCA1 260711Z 10007KT 17/17 A2994 RMK A01 T01720169  RH  098%=      5-min Rain = 0
KCA1 260712Z 10007KT 17/17 A2994 RMK A01 T01720170  RH  098%=      5-min Rain = 0
KCA1 260713Z 09007KT 17/17 A2994 RMK A01 T01720169  RH  098%=      5-min Rain = 0
KCA1 260714Z 09006KT 17/17 A2994 RMK A01 T01720169  RH  098%=      5-min Rain = 0
KCA1 260715Z 09006KT 17/17 A2994 RMK A01 T01720169  RH  098%=      5-min Rain = 0
KCA1 260716Z 09005KT 17/17 A2994 RMK A01 T01720169  RH  098%=      5-min Rain = 0
KCA1 260717Z 09006KT 17/17 A2994 RMK A01 T01710169  RH  099%=      5-min Rain = 0
KCA1 260718Z 09006KT 17/17 A2994 RMK A01 T01720170  RH  099%=      5-min Rain = 0
KCA1 260719Z 09006KT 17/17 A2994 RMK A01 T01720170  RH  099%=      5-min Rain = 0
KCA1 260720Z 10006KT 17/17 A2994 RMK A01 T01720170  RH  099%=      5-min Rain = 0
KCA1 260721Z 09007KT 17/17 A2994 RMK A01 T01710170  RH  099%=      5-min Rain = 0
KCA1 260722Z 09007KT 17/17 A2994 RMK A01 T01710170  RH  099%=      5-min Rain = 0
KCA1 260723Z 09006KT 17/17 A2994 RMK A01 T01710170  RH  099%=      5-min Rain = 0
KCA1 260724Z 09005KT 17/17 A2994 RMK A01 T01710170  RH  099%=      5-min Rain = 0
KCA1 260725Z 09005KT 17/17 A2994 RMK A01 T01710170  RH  099%=      5-min Rain = 0
KCA1 260726Z 08004KT 17/17 A2994 RMK A01 T01710171  RH  100%=      5-min Rain = 0
KCA1 260727Z 08005KT 17/17 A2994 RMK A01 T01710171  RH  100%=      5-min Rain = 0
KCA1 260728Z 08004KT 17/17 A2994 RMK A01 T01710171  RH  100%=      5-min Rain = 0
KCA1 260729Z 07004KT 17/17 A2994 RMK A01 T01710171  RH  100%=      5-min Rain = 0
KCA1 260730Z 06004KT 17/17 A2994 RMK A01 T01710171  RH  100%=      5-min Rain = 0
KCA1 260731Z 08004KT 17/17 A2994 RMK A01 T01710171  RH  100%=      5-min Rain = 0
KCA1 260732Z 07004KT 17/17 A2995 RMK A01 T01720172  RH  100%=      5-min Rain = 0
KCA1 260733Z 08004KT 17/17 A2995 RMK A01 T01720172  RH  100%=      5-min Rain = 0
KCA1 260734Z 08004KT 17/17 A2995 RMK A01 T01720172  RH  100%=      5-min Rain = 0
KCA1 260735Z 07003KT 17/17 A2995 RMK A01 T01720172  RH  100%=      5-min Rain = 0
KCA1 260736Z 07003KT 17/17 A2995 RMK A01 T01730173  RH  100%=      5-min Rain = 0
KCA1 260737Z 08004KT 17/17 A2995 RMK A01 T01730173  RH  100%=      5-min Rain = 0
KCA1 260738Z 07002KT 17/17 A2995 RMK A01 T01730173  RH  100%=      5-min Rain = 0
KCA1 260739Z 08002KT 17/17 A2995 RMK A01 T01730173  RH  100%=      5-min Rain = 0
KCA1 260740Z 09004KT 17/17 A2995 RMK A01 T01730173  RH  100%=      5-min Rain = 0
KCA1 260741Z 10003KT 17/17 A2995 RMK A01 T01730173  RH  100%=      5-min Rain = 0
KCA1 260742Z 09003KT 17/17 A2995 RMK A01 T01730173  RH  100%=      5-min Rain = 0
KCA1 260743Z 11003KT 17/17 A2995 RMK A01 T01740173  RH  100%=      5-min Rain = 0
KCA1 260744Z 11004KT 17/17 A2995 RMK A01 T01740174  RH  100%=      5-min Rain = 0
KCA1 260745Z 11003KT 17/17 A2995 RMK A01 T01740174  RH  100%=      5-min Rain = 0
KCA1 260746Z 11003KT 17/17 A2995 RMK A01 T01740174  RH  100%=      5-min Rain = 0
KCA1 260747Z 12003KT 17/17 A2995 RMK A01 T01740174  RH  100%=      5-min Rain = 0
KCA1 260748Z 11002KT 17/17 A2995 RMK A01 T01740174  RH  100%=      5-min Rain = 0
KCA1 260749Z 12002KT 17/17 A2995 RMK A01 T01740174  RH  100%=      5-min Rain = 0
KCA1 260750Z 14002KT 17/18 A2995 RMK A01 T01740175  RH  100%=      5-min Rain = 0
KCA1 260751Z 13003KT 17/17 A2995 RMK A01 T01740174  RH  100%=      5-min Rain = 0
KCA1 260752Z 13004KT 17/17 A2995 RMK A01 T01740174  RH  100%=      5-min Rain = 0
KCA1 260753Z 14004KT 18/18 A2995 RMK A01 T01750175  RH  100%=      5-min Rain = 0
KCA1 260754Z 14004KT 18/18 A2995 RMK A01 T01750175  RH  100%=      5-min Rain = 0
KCA1 260755Z 15005KT 18/18 A2995 RMK A01 T01750175  RH  100%=      5-min Rain = 0
KCA1 260756Z 15007KT 18/18 A2995 RMK A01 T01760176  RH  100%=      5-min Rain = 0
KCA1 260757Z 15006KT 18/18 A2995 RMK A01 T01780178  RH  100%=      5-min Rain = 0
KCA1 260758Z 15006KT 18/18 A2995 RMK A01 T01790179  RH  100%=      5-min Rain = 0
KCA1 260759Z 15006KT 18/18 A2995 RMK A01 T01800180  RH  100%=      5-min Rain = 0
KCA1 260800Z 14006KT 18/18 A2995 RMK A01 T01810181  RH  100%=      5-min Rain = 0
KCA1 260801Z 14006KT 18/18 A2995 RMK A01 T01810181  RH  100%=      5-min Rain = 0
KCA1 260802Z 14008KT 18/18 A2994 RMK A01 T01820182  RH  100%=      5-min Rain = 0
KCA1 260803Z 14010KT 18/18 A2994 RMK A01 T01830183  RH  100%=      5-min Rain = 0
KCA1 260804Z 13008KT 19/19 A2994 RMK A01 T01850185  RH  100%=      5-min Rain = 0
KCA1 260805Z 14008KT 19/19 A2994 RMK A01 T01860186  RH  100%=      5-min Rain = 0
KCA1 260806Z 14009KT 19/19 A2995 RMK A01 T01860186  RH  100%=      5-min Rain = 0
KCA1 260807Z 14009KT 19/19 A2995 RMK A01 T01870187  RH  100%=      5-min Rain = 0
KCA1 260808Z 14011KT 19/19 A2995 RMK A01 T01880188  RH  100%=      5-min Rain = 0
KCA1 260809Z 14010KT 19/19 A2995 RMK A01 T01890190  RH  100%=      5-min Rain = 0
KCA1 260810Z 13009KT 19/19 A2994 RMK A01 T01900190  RH  100%=      5-min Rain = 0
KCA1 260811Z 13011KT 19/19 A2994 RMK A01 T01900190  RH  100%=      5-min Rain = 0
KCA1 260812Z 14009KT 19/19 A2995 RMK A01 T01900190  RH  100%=      5-min Rain = 0
KCA1 260813Z 14009KT 19/19 A2995 RMK A01 T01910191  RH  100%=      5-min Rain = 0
KCA1 260814Z 14009KT 19/19 A2995 RMK A01 T01910191  RH  100%=      5-min Rain = 0
KCA1 260815Z 14008KT 19/19 A2995 RMK A01 T01910191  RH  100%=      5-min Rain = 0
KCA1 260816Z 13008KT 19/19 A2995 RMK A01 T01910191  RH  100%=      5-min Rain = 0
KCA1 260817Z 13008KT 19/19 A2995 RMK A01 T01910191  RH  100%=      5-min Rain = 0
KCA1 260818Z 13010KT 19/19 A2995 RMK A01 T01920192  RH  100%=      5-min Rain = 0
KCA1 260819Z 13009KT 19/19 A2995 RMK A01 T01920192  RH  100%=      5-min Rain = 0
KCA1 260820Z 13010KT 19/19 A2995 RMK A01 T01920192  RH  100%=      5-min Rain = 0
KCA1 260821Z 13011KT 19/19 A2995 RMK A01 T01920193  RH  100%=      5-min Rain = 0
KCA1 260822Z 13012KT 19/19 A2995 RMK A01 T01930193  RH  100%=      5-min Rain = 0
KCA1 260823Z 13010KT 19/19 A2995 RMK A01 T01930193  RH  100%=      5-min Rain = 0
KCA1 260824Z 13008KT 19/19 A2995 RMK A01 T01930194  RH  100%=      5-min Rain = 0
KCA1 260825Z 14011KT 19/19 A2995 RMK A01 T01930194  RH  100%=      5-min Rain = 0
KCA1 260826Z 14009KT 19/19 A2995 RMK A01 T01940194  RH  100%=      5-min Rain = 0
KCA1 260827Z 14012KT 19/19 A2995 RMK A01 T01940194  RH  100%=      5-min Rain = 0
KCA1 260828Z 14011KT 19/19 A2995 RMK A01 T01940194  RH  100%=      5-min Rain = 0
KCA1 260829Z 15008KT 19/19 A2995 RMK A01 T01940194  RH  100%=      5-min Rain = 0
KCA1 260830Z 14010KT 19/19 A2995 RMK A01 T01940194  RH  100%=      5-min Rain = 0
KCA1 260831Z 14012KT 20/20 A2995 RMK A01 T01950195  RH  100%=      5-min Rain = 0
KCA1 260832Z 14011KT 20/20 A2995 RMK A01 T01950195  RH  100%=      5-min Rain = 0
KCA1 260833Z 14010KT 20/20 A2995 RMK A01 T01950195  RH  100%=      5-min Rain = 0
KCA1 260834Z 13010KT 20/20 A2995 RMK A01 T01950195  RH  100%=      5-min Rain = 0
KCA1 260835Z 13009KT 20/20 A2995 RMK A01 T01950195  RH  100%=      5-min Rain = 0
KCA1 260836Z 14011KT 20/20 A2995 RMK A01 T01950195  RH  100%=      5-min Rain = 0
KCA1 260837Z 14009KT 20/20 A2995 RMK A01 T01960196  RH  100%=      5-min Rain = 0
KCA1 260838Z 14010KT 20/20 A2995 RMK A01 T01960196  RH  100%=      5-min Rain = 0
KCA1 260839Z 14011KT 20/20 A2995 RMK A01 T01960196  RH  100%=      5-min Rain = 0
KCA1 260840Z 14011KT 20/20 A2995 RMK A01 T01960196  RH  100%=      5-min Rain = 0
KCA1 260841Z 14011KT 20/20 A2995 RMK A01 T01960196  RH  100%=      5-min Rain = 0
KCA1 260842Z 13010KT 20/20 A2995 RMK A01 T01960196  RH  100%=      5-min Rain = 0
KCA1 260843Z 14009KT 20/20 A2995 RMK A01 T01960196  RH  100%=      5-min Rain = 0
KCA1 260844Z 13009KT 20/20 A2995 RMK A01 T01960196  RH  100%=      5-min Rain = 0
KCA1 260845Z 14010KT 20/20 A2995 RMK A01 T01970197  RH  100%=      5-min Rain = 0
KCA1 260846Z 14011KT 20/20 A2995 RMK A01 T01970197  RH  100%=      5-min Rain = 0
KCA1 260847Z 14009KT 20/20 A2995 RMK A01 T01970197  RH  100%=      5-min Rain = 0
KCA1 260848Z 14010KT 20/20 A2995 RMK A01 T01970197  RH  100%=      5-min Rain = 0
KCA1 260849Z 13010KT 20/20 A2995 RMK A01 T01970197  RH  100%=      5-min Rain = 0
KCA1 260850Z 14010KT 20/20 A2995 RMK A01 T01970197  RH  100%=      5-min Rain = 0
KCA1 260851Z 14011KT 20/20 A2995 RMK A01 T01970197  RH  100%=      5-min Rain = 0
KCA1 260852Z 13009KT 20/20 A2995 RMK A01 T01970198  RH  100%=      5-min Rain = 0
KCA1 260853Z 14008KT 20/20 A2995 RMK A01 T01970198  RH  100%=      5-min Rain = 0
KCA1 260854Z 14008KT 20/20 A2995 RMK A01 T01970198  RH  100%=      5-min Rain = 0
KCA1 260855Z 14009KT 20/20 A2995 RMK A01 T01970198  RH  100%=      5-min Rain = 0
KCA1 260856Z 14010KT 20/20 A2995 RMK A01 T01980198  RH  100%=      5-min Rain = 0
KCA1 260857Z 14009KT 20/20 A2995 RMK A01 T01980198  RH  100%=      5-min Rain = 0
KCA1 260858Z 13010KT 20/20 A2995 RMK A01 T01980198  RH  100%=      5-min Rain = 0
KCA1 260859Z 13011KT 20/20 A2995 RMK A01 T01980198  RH  100%=      5-min Rain = 0
KCA1 260900Z 14011KT 20/20 A2995 RMK A01 T01980199  RH  100%=      5-min Rain = 0
KCA1 260901Z 14010KT 20/20 A2995 RMK A01 T01980199  RH  100%=      5-min Rain = 0
KCA1 260902Z 14009KT 20/20 A2995 RMK A01 T01990199  RH  100%=      5-min Rain = 0
KCA1 260903Z 14010KT 20/20 A2995 RMK A01 T01990199  RH  100%=      5-min Rain = 0
KCA1 260904Z 14011KT 20/20 A2995 RMK A01 T01990199  RH  100%=      5-min Rain = 0
KCA1 260905Z 15009KT 20/20 A2995 RMK A01 T01990199  RH  100%=      5-min Rain = 0
KCA1 260906Z 14009KT 20/20 A2995 RMK A01 T01990199  RH  100%=      5-min Rain = 0
KCA1 260907Z 14011KT 20/20 A2995 RMK A01 T01990199  RH  100%=      5-min Rain = 0
KCA1 260908Z 14011KT 20/20 A2995 RMK A01 T01990199  RH  100%=      5-min Rain = 0
KCA1 260909Z 14009KT 20/20 A2995 RMK A01 T01990200  RH  100%=      5-min Rain = 0
KCA1 260910Z 14011KT 20/20 A2995 RMK A01 T01990200  RH  100%=      5-min Rain = 0
KCA1 260911Z 14010KT 20/20 A2995 RMK A01 T02000200  RH  100%=      5-min Rain = 0
KCA1 260912Z 14010KT 20/20 A2995 RMK A01 T02000200  RH  100%=      5-min Rain = 0
KCA1 260913Z 14010KT 20/20 A2995 RMK A01 T02000200  RH  100%=      5-min Rain = 0
KCA1 260914Z 14009KT 20/20 A2995 RMK A01 T02000200  RH  100%=      5-min Rain = 0
KCA1 260915Z 14010KT 20/20 A2995 RMK A01 T02000200  RH  100%=      5-min Rain = 0
KCA1 260916Z 14009KT 20/20 A2995 RMK A01 T02000200  RH  100%=      5-min Rain = 0
KCA1 260917Z 14011KT 20/20 A2995 RMK A01 T02000200  RH  100%=      5-min Rain = 0
KCA1 260918Z 14011KT 20/20 A2995 RMK A01 T02000200  RH  100%=      5-min Rain = 0
KCA1 260919Z 14012KT 20/20 A2994 RMK A01 T02000200  RH  100%=      5-min Rain = 0
KCA1 260920Z 14012KT 20/20 A2995 RMK A01 T02000200  RH  100%=      5-min Rain = 0
KCA1 260921Z 14010KT 20/20 A2994 RMK A01 T02000201  RH  100%=      5-min Rain = 0
KCA1 260922Z 14009KT 20/20 A2994 RMK A01 T02000200  RH  100%=      5-min Rain = 0
KCA1 260923Z 14011KT 20/20 A2994 RMK A01 T02000200  RH  100%=      5-min Rain = 0
KCA1 260924Z 14011KT 20/20 A2994 RMK A01 T02000200  RH  100%=      5-min Rain = 0
KCA1 260925Z 14009KT 20/20 A2994 RMK A01 T02000200  RH  100%=      5-min Rain = 0
KCA1 260926Z 15012KT 20/20 A2994 RMK A01 T02000201  RH  100%=      5-min Rain = 0
KCA1 260927Z 14011KT 20/20 A2994 RMK A01 T02000201  RH  100%=      5-min Rain = 0
KCA1 260928Z 15008KT 20/20 A2994 RMK A01 T02010201  RH  100%=      5-min Rain = 0
KCA1 260929Z 15009KT 20/20 A2994 RMK A01 T02010201  RH  100%=      5-min Rain = 0
KCA1 260930Z 14009KT 20/20 A2994 RMK A01 T02010201  RH  100%=      5-min Rain = 0
KCA1 260931Z 15010KT 20/20 A2994 RMK A01 T02010201  RH  100%=      5-min Rain = 0
KCA1 260932Z 15011KT 20/20 A2994 RMK A01 T02010201  RH  100%=      5-min Rain = 0
KCA1 260933Z 15009KT 20/20 A2995 RMK A01 T02010201  RH  100%=      5-min Rain = 0
KCA1 260934Z 15011KT 20/20 A2995 RMK A01 T02010201  RH  100%=      5-min Rain = 0
KCA1 260935Z 15009KT 20/20 A2995 RMK A01 T02010201  RH  100%=      5-min Rain = 0
KCA1 260936Z 14008KT 20/20 A2995 RMK A01 T02010201  RH  100%=      5-min Rain = 0
KCA1 260937Z 15009KT 20/20 A2995 RMK A01 T02010201  RH  100%=      5-min Rain = 0
KCA1 260938Z 15009KT 20/20 A2995 RMK A01 T02010201  RH  100%=      5-min Rain = 0
KCA1 260939Z 15010KT 20/20 A2995 RMK A01 T02010201  RH  100%=      5-min Rain = 0
KCA1 260940Z 15010KT 20/20 A2995 RMK A01 T02010201  RH  100%=      5-min Rain = 0
KCA1 260941Z 15010KT 20/20 A2995 RMK A01 T02010201  RH  100%=      5-min Rain = 0
KCA1 260942Z 15009KT 20/20 A2995 RMK A01 T02010201  RH  100%=      5-min Rain = 0
KCA1 260943Z 15011KT 20/20 A2995 RMK A01 T02010201  RH  100%=      5-min Rain = 0
KCA1 260944Z 16011KT 20/20 A2995 RMK A01 T02010201  RH  100%=      5-min Rain = 0
KCA1 260945Z 15010KT 20/20 A2995 RMK A01 T02010201  RH  100%=      5-min Rain = 0
KCA1 260946Z 15011KT 20/20 A2995 RMK A01 T02010202  RH  100%=      5-min Rain = 0
KCA1 260947Z 16010KT 20/20 A2995 RMK A01 T02020202  RH  100%=      5-min Rain = 0
KCA1 260948Z 16010KT 20/20 A2995 RMK A01 T02020202  RH  100%=      5-min Rain = 0
KCA1 260949Z 16011KT 20/20 A2995 RMK A01 T02020202  RH  100%=      5-min Rain = 0
KCA1 260950Z 16011KT 20/20 A2995 RMK A01 T02020202  RH  100%=      5-min Rain = 0
KCA1 260951Z 16009KT 20/20 A2995 RMK A01 T02020202  RH  100%=      5-min Rain = 0
KCA1 260952Z 16008KT 20/20 A2995 RMK A01 T02020202  RH  100%=      5-min Rain = 0
KCA1 260953Z 16010KT 20/20 A2995 RMK A01 T02020202  RH  100%=      5-min Rain = 0
KCA1 260954Z 15009KT 20/20 A2995 RMK A01 T02020202  RH  100%=      5-min Rain = 0
KCA1 260955Z 15010KT 20/20 A2995 RMK A01 T02020202  RH  100%=      5-min Rain = 0
KCA1 260956Z 15010KT 20/20 A2995 RMK A01 T02020202  RH  100%=      5-min Rain = 0
KCA1 260957Z 15007KT 20/20 A2995 RMK A01 T02020202  RH  100%=      5-min Rain = 0
KCA1 260958Z 15009KT 20/20 A2995 RMK A01 T02020202  RH  100%=      5-min Rain = 0
KCA1 260959Z 14010KT 20/20 A2995 RMK A01 T02020202  RH  100%=      5-min Rain = 0
KCA1 261000Z 15009KT 20/20 A2995 RMK A01 T02020202  RH  100%=      5-min Rain = 0
KCA1 261001Z 15007KT 20/20 A2995 RMK A01 T02020202  RH  100%=      5-min Rain = 0
KCA1 261002Z 15009KT 20/20 A2995 RMK A01 T02020202  RH  100%=      5-min Rain = 0
KCA1 261003Z 15008KT 20/20 A2995 RMK A01 T02020202  RH  100%=      5-min Rain = 0
KCA1 261004Z 16009KT 20/20 A2995 RMK A01 T02020202  RH  100%=      5-min Rain = 0
KCA1 261005Z 15011KT 20/20 A2995 RMK A01 T02020202  RH  100%=      5-min Rain = 0
KCA1 261006Z 15011KT 20/20 A2995 RMK A01 T02020202  RH  100%=      5-min Rain = 0
KCA1 261007Z 16010KT 20/20 A2995 RMK A01 T02020202  RH  100%=      5-min Rain = 0
KCA1 261008Z 15008KT 20/20 A2995 RMK A01 T02020202  RH  100%=      5-min Rain = 0
KCA1 261009Z 15008KT 20/20 A2995 RMK A01 T02020202  RH  100%=      5-min Rain = 0
KCA1 261010Z 16011KT 20/20 A2995 RMK A01 T02020202  RH  100%=      5-min Rain = 0
KCA1 261011Z 15009KT 20/20 A2995 RMK A01 T02020202  RH  100%=      5-min Rain = 0
KCA1 261012Z 15009KT 20/20 A2995 RMK A01 T02020202  RH  100%=      5-min Rain = 0
KCA1 261013Z 15008KT 20/20 A2995 RMK A01 T02020202  RH  100%=      5-min Rain = 0
KCA1 261014Z 15008KT 20/20 A2995 RMK A01 T02020202  RH  100%=      5-min Rain = 0
KCA1 261015Z 15010KT 20/20 A2995 RMK A01 T02020202  RH  100%=      5-min Rain = 0
KCA1 261016Z 16008KT 20/20 A2995 RMK A01 T02020202  RH  100%=      5-min Rain = 0
KCA1 261017Z 15010KT 20/20 A2995 RMK A01 T02020202  RH  100%=      5-min Rain = 0
KCA1 261018Z 15011KT 20/20 A2995 RMK A01 T02020202  RH  100%=      5-min Rain = 0
KCA1 261019Z 15010KT 20/20 A2995 RMK A01 T02020203  RH  100%=      5-min Rain = 0
KCA1 261020Z 15013KT 20/20 A2995 RMK A01 T02030203  RH  100%=      5-min Rain = 0
KCA1 261021Z 15012KT 20/20 A2995 RMK A01 T02030203  RH  100%=      5-min Rain = 0
KCA1 261022Z 16010KT 20/20 A2995 RMK A01 T02030203  RH  100%=      5-min Rain = 0
KCA1 261023Z 16009KT 20/20 A2995 RMK A01 T02030204  RH  100%=      5-min Rain = 0
KCA1 261024Z 16008KT 20/20 A2995 RMK A01 T02030204  RH  100%=      5-min Rain = 0
KCA1 261025Z 16010KT 20/20 A2995 RMK A01 T02030204  RH  100%=      5-min Rain = 0
KCA1 261026Z 15012KT 20/20 A2995 RMK A01 T02040204  RH  100%=      5-min Rain = 0
KCA1 261027Z 15009KT 20/20 A2995 RMK A01 T02040204  RH  100%=      5-min Rain = 0
KCA1 261028Z 15010KT 20/20 A2995 RMK A01 T02030203  RH  100%=      5-min Rain = 0
KCA1 261029Z 15010KT 20/20 A2995 RMK A01 T02040204  RH  100%=      5-min Rain = 0
KCA1 261030Z 16008KT 20/20 A2995 RMK A01 T02040204  RH  100%=      5-min Rain = 0
KCA1 261031Z 16010KT 20/20 A2995 RMK A01 T02030203  RH  100%=      5-min Rain = 0
KCA1 261032Z 15010KT 20/20 A2995 RMK A01 T02030204  RH  100%=      5-min Rain = 0
KCA1 261033Z 15009KT 20/20 A2995 RMK A01 T02030204  RH  100%=      5-min Rain = 0
KCA1 261034Z 15009KT 20/20 A2995 RMK A01 T02040204  RH  100%=      5-min Rain = 0
KCA1 261035Z 16009KT 20/20 A2995 RMK A01 T02040204  RH  100%=      5-min Rain = 0
KCA1 261036Z 16012KT 20/20 A2995 RMK A01 T02040204  RH  100%=      5-min Rain = 0
KCA1 261037Z 16011KT 20/20 A2995 RMK A01 T02040204  RH  100%=      5-min Rain = 0
KCA1 261038Z 15007KT 20/20 A2995 RMK A01 T02040204  RH  100%=      5-min Rain = 0
KCA1 261039Z 16009KT 20/20 A2995 RMK A01 T02040204  RH  100%=      5-min Rain = 0
KCA1 261040Z 16008KT 20/20 A2995 RMK A01 T02040204  RH  100%=      5-min Rain = 0
KCA1 261041Z 16010KT 21/20 A2995 RMK A01 T02050204  RH  100%=      5-min Rain = 0
KCA1 261042Z 16008KT 20/20 A2995 RMK A01 T02040204  RH  100%=      5-min Rain = 0
KCA1 261043Z 16009KT 20/20 A2995 RMK A01 T02040204  RH  100%=      5-min Rain = 0
KCA1 261044Z 16009KT 21/20 A2995 RMK A01 T02050204  RH  100%=      5-min Rain = 0
KCA1 261045Z 16010KT 21/20 A2995 RMK A01 T02050204  RH  100%=      5-min Rain = 0
KCA1 261046Z 16009KT 21/20 A2995 RMK A01 T02050204  RH  099%=      5-min Rain = 0
KCA1 261047Z 16010KT 21/20 A2995 RMK A01 T02050204  RH  099%=      5-min Rain = 0
KCA1 261048Z 16008KT 21/20 A2995 RMK A01 T02050204  RH  099%=      5-min Rain = 0
KCA1 261049Z 15010KT 21/20 A2995 RMK A01 T02050204  RH  099%=      5-min Rain = 0
KCA1 261050Z 16008KT 21/20 A2995 RMK A01 T02050204  RH  099%=      5-min Rain = 0
KCA1 261051Z 16009KT 21/20 A2995 RMK A01 T02050204  RH  099%=      5-min Rain = 0
KCA1 261052Z 16010KT 21/20 A2995 RMK A01 T02050204  RH  099%=      5-min Rain = 0
KCA1 261053Z 16008KT 21/20 A2995 RMK A01 T02050204  RH  099%=      5-min Rain = 0
KCA1 261054Z 16009KT 21/20 A2995 RMK A01 T02050204  RH  099%=      5-min Rain = 0
KCA1 261055Z 16010KT 21/20 A2995 RMK A01 T02050204  RH  099%=      5-min Rain = 0
KCA1 261056Z 16009KT 21/20 A2995 RMK A01 T02050204  RH  099%=      5-min Rain = 0
KCA1 261057Z 16008KT 21/20 A2996 RMK A01 T02050204  RH  099%=      5-min Rain = 0
KCA1 261058Z 16009KT 21/20 A2996 RMK A01 T02050204  RH  099%=      5-min Rain = 0
KCA1 261059Z 16008KT 21/20 A2996 RMK A01 T02050204  RH  099%=      5-min Rain = 0
KCA1 261100Z 16007KT 21/20 A2996 RMK A01 T02050204  RH  099%=      5-min Rain = 0
KCA1 261101Z 16009KT 21/20 A2996 RMK A01 T02050204  RH  099%=      5-min Rain = 0
KCA1 261102Z 16010KT 21/20 A2996 RMK A01 T02050204  RH  099%=      5-min Rain = 0
KCA1 261103Z 16008KT 21/20 A2996 RMK A01 T02050204  RH  099%=      5-min Rain = 0
KCA1 261104Z 16010KT 21/20 A2996 RMK A01 T02050204  RH  099%=      5-min Rain = 0
KCA1 261105Z 16008KT 21/20 A2996 RMK A01 T02050204  RH  099%=      5-min Rain = 0
KCA1 261106Z 16008KT 21/20 A2996 RMK A01 T02060204  RH  099%=      5-min Rain = 0
KCA1 261107Z 16009KT 21/20 A2996 RMK A01 T02060204  RH  099%=      5-min Rain = 0
KCA1 261108Z 16008KT 21/20 A2996 RMK A01 T02060204  RH  099%=      5-min Rain = 0
KCA1 261109Z 16007KT 21/20 A2996 RMK A01 T02060204  RH  099%=      5-min Rain = 0
KCA1 261110Z 15007KT 21/20 A2996 RMK A01 T02060204  RH  099%=      5-min Rain = 0
KCA1 261111Z 16008KT 21/20 A2996 RMK A01 T02060204  RH  099%=      5-min Rain = 0
KCA1 261112Z 16009KT 21/20 A2996 RMK A01 T02060204  RH  099%=      5-min Rain = 0
KCA1 261113Z 16010KT 21/20 A2996 RMK A01 T02050204  RH  099%=      5-min Rain = 0
KCA1 261114Z 16010KT 21/20 A2996 RMK A01 T02060204  RH  099%=      5-min Rain = 0
KCA1 261115Z 17011KT 21/20 A2996 RMK A01 T02060204  RH  098%=      5-min Rain = 0
KCA1 261116Z 16010KT 21/20 A2996 RMK A01 T02060203  RH  098%=      5-min Rain = 0
KCA1 261117Z 16010KT 21/20 A2996 RMK A01 T02070204  RH  098%=      5-min Rain = 0
KCA1 261118Z 16011KT 21/20 A2996 RMK A01 T02070203  RH  098%=      5-min Rain = 0
KCA1 261119Z 16011KT 21/20 A2996 RMK A01 T02070203  RH  098%=      5-min Rain = 0
KCA1 261120Z 16010KT 21/20 A2996 RMK A01 T02070203  RH  098%=      5-min Rain = 0
KCA1 261121Z 16009KT 21/20 A2996 RMK A01 T02070204  RH  098%=      5-min Rain = 0
KCA1 261122Z 16010KT 21/20 A2996 RMK A01 T02060204  RH  098%=      5-min Rain = 0
KCA1 261123Z 16011KT 21/20 A2996 RMK A01 T02060203  RH  098%=      5-min Rain = 0
KCA1 261124Z 16012KT 21/20 A2996 RMK A01 T02060203  RH  098%=      5-min Rain = 0
KCA1 261125Z 17011KT 21/20 A2996 RMK A01 T02060203  RH  098%=      5-min Rain = 0
KCA1 261126Z 17010KT 21/20 A2996 RMK A01 T02060203  RH  098%=      5-min Rain = 0
KCA1 261127Z 16010KT 21/20 A2996 RMK A01 T02060203  RH  098%=      5-min Rain = 0
KCA1 261128Z 17011KT 21/20 A2996 RMK A01 T02060203  RH  098%=      5-min Rain = 0
KCA1 261129Z 16013KT 21/20 A2996 RMK A01 T02060203  RH  098%=      5-min Rain = 0
KCA1 261130Z 16013KT 21/20 A2996 RMK A01 T02060203  RH  098%=      5-min Rain = 0
KCA1 261131Z 16011KT 21/20 A2996 RMK A01 T02070203  RH  098%=      5-min Rain = 0
KCA1 261132Z 17010KT 21/20 A2996 RMK A01 T02070203  RH  097%=      5-min Rain = 0
KCA1 261133Z 17011KT 21/20 A2997 RMK A01 T02070203  RH  098%=      5-min Rain = 0
KCA1 261134Z 17011KT 21/20 A2997 RMK A01 T02070203  RH  098%=      5-min Rain = 0
KCA1 261135Z 17012KT 21/20 A2997 RMK A01 T02070203  RH  098%=      5-min Rain = 0
KCA1 261136Z 17011KT 21/20 A2997 RMK A01 T02070203  RH  098%=      5-min Rain = 0
KCA1 261137Z 17010KT 21/20 A2997 RMK A01 T02070203  RH  098%=      5-min Rain = 0
KCA1 261138Z 17011KT 21/20 A2997 RMK A01 T02070203  RH  098%=      5-min Rain = 0
KCA1 261139Z 17010KT 21/20 A2997 RMK A01 T02070203  RH  098%=      5-min Rain = 0
KCA1 261140Z 17009G14KT 21/20 A2997 RMK A01 T02070203  RH  098%=      5-min Rain = 0
KCA1 261141Z 17012KT 21/20 A2997 RMK A01 T02060203  RH  098%=      5-min Rain = 0
KCA1 261142Z 17012KT 21/20 A2997 RMK A01 T02060203  RH  098%=      5-min Rain = 0
KCA1 261143Z 16011KT 21/20 A2997 RMK A01 T02060203  RH  098%=      5-min Rain = 0
KCA1 261144Z 17010KT 21/20 A2997 RMK A01 T02060203  RH  098%=      5-min Rain = 0
KCA1 261145Z 17011KT 21/20 A2997 RMK A01 T02060203  RH  098%=      5-min Rain = 0
KCA1 261146Z 17011KT 21/20 A2997 RMK A01 T02060203  RH  098%=      5-min Rain = 0
KCA1 261147Z 17008KT 21/20 A2997 RMK A01 T02070203  RH  098%=      5-min Rain = 0
KCA1 261148Z 17009KT 21/20 A2997 RMK A01 T02060202  RH  098%=      5-min Rain = 0
KCA1 261149Z 17009KT 21/20 A2997 RMK A01 T02070203  RH  098%=      5-min Rain = 0
KCA1 261150Z 17010KT 21/20 A2997 RMK A01 T02060203  RH  098%=      5-min Rain = 0
KCA1 261151Z 17010KT 21/20 A2997 RMK A01 T02060203  RH  098%=      5-min Rain = 0
KCA1 261152Z 17010KT 21/20 A2997 RMK A01 T02060202  RH  098%=      5-min Rain = 0
KCA1 261153Z 17010KT 21/20 A2997 RMK A01 T02060203  RH  098%=      5-min Rain = 0
KCA1 261154Z 17010KT 21/20 A2997 RMK A01 T02060203  RH  098%=      5-min Rain = 0
KCA1 261155Z 17009KT 21/20 A2997 RMK A01 T02060203  RH  098%=      5-min Rain = 0
KCA1 261156Z 17010KT 21/20 A2997 RMK A01 T02060203  RH  098%=      5-min Rain = 0
KCA1 261157Z 17010KT 21/20 A2997 RMK A01 T02060203  RH  098%=      5-min Rain = 0
KCA1 261158Z 17012KT 21/20 A2997 RMK A01 T02060203  RH  098%=      5-min Rain = 0
KCA1 261159Z 17012KT 21/20 A2997 RMK A01 T02060203  RH  098%=      5-min Rain = 0
KCA1 261200Z 17010KT 21/20 A2997 RMK A01 T02060202  RH  098%=      5-min Rain = 0
KCA1 261201Z 17011KT 21/20 A2997 RMK A01 T02060202  RH  098%=      5-min Rain = 0
KCA1 261202Z 17011KT 21/20 A2997 RMK A01 T02060202  RH  098%=      5-min Rain = 0
KCA1 261203Z 17011KT 21/20 A2997 RMK A01 T02060202  RH  098%=      5-min Rain = 0
KCA1 261204Z 17012KT 21/20 A2997 RMK A01 T02060202  RH  098%=      5-min Rain = 0
KCA1 261205Z 17012KT 21/20 A2997 RMK A01 T02060202  RH  098%=      5-min Rain = 0
KCA1 261206Z 17010KT 21/20 A2997 RMK A01 T02060202  RH  098%=      5-min Rain = 0
KCA1 261207Z 17012KT 21/20 A2997 RMK A01 T02060202  RH  098%=      5-min Rain = 0
KCA1 261208Z 17012KT 21/20 A2997 RMK A01 T02060202  RH  098%=      5-min Rain = 0
KCA1 261209Z 17012KT 21/20 A2997 RMK A01 T02060202  RH  098%=      5-min Rain = 0
KCA1 261210Z 16014KT 21/20 A2997 RMK A01 T02060202  RH  097%=      5-min Rain = 0
KCA1 261211Z 17010KT 21/20 A2997 RMK A01 T02060201  RH  097%=      5-min Rain = 0
KCA1 261212Z 17012KT 21/20 A2997 RMK A01 T02060201  RH  097%=      5-min Rain = 0
KCA1 261213Z 17012KT 21/20 A2997 RMK A01 T02060201  RH  097%=      5-min Rain = 0
KCA1 261214Z 17010KT 21/20 A2998 RMK A01 T02060201  RH  097%=      5-min Rain = 0
KCA1 261215Z 17012KT 21/20 A2998 RMK A01 T02060202  RH  098%=      5-min Rain = 0
KCA1 261216Z 17010KT 21/20 A2998 RMK A01 T02060202  RH  098%=      5-min Rain = 0
KCA1 261217Z 17012KT 21/20 A2998 RMK A01 T02050202  RH  098%=      5-min Rain = 0
KCA1 261218Z 17011KT 21/20 A2998 RMK A01 T02060202  RH  098%=      5-min Rain = 0
KCA1 261219Z 17010KT 21/20 A2998 RMK A01 T02050202  RH  098%=      5-min Rain = 0
KCA1 261220Z 17010KT 21/20 A2998 RMK A01 T02050202  RH  098%=      5-min Rain = 0
KCA1 261221Z 17012KT 21/20 A2998 RMK A01 T02050202  RH  098%=      5-min Rain = 0
KCA1 261222Z 17011KT 21/20 A2998 RMK A01 T02050202  RH  098%=      5-min Rain = 0
KCA1 261223Z 17012KT 21/20 A2998 RMK A01 T02050202  RH  098%=      5-min Rain = 0
KCA1 261224Z 17011KT 21/20 A2998 RMK A01 T02050201  RH  097%=      5-min Rain = 0
KCA1 261225Z 16012KT 21/20 A2998 RMK A01 T02050201  RH  097%=      5-min Rain = 0
KCA1 261226Z 17014KT 21/20 A2998 RMK A01 T02050201  RH  097%=      5-min Rain = 0
KCA1 261227Z 17010KT 21/20 A2998 RMK A01 T02050201  RH  097%=      5-min Rain = 0
KCA1 261228Z 17011KT 21/20 A2998 RMK A01 T02050201  RH  097%=      5-min Rain = 0
KCA1 261229Z 17010KT 21/20 A2998 RMK A01 T02050201  RH  097%=      5-min Rain = 0
KCA1 261230Z 17010KT 21/20 A2998 RMK A01 T02050201  RH  097%=      5-min Rain = 0
KCA1 261231Z 17011KT 21/20 A2998 RMK A01 T02050202  RH  098%=      5-min Rain = 0
KCA1 261232Z 17012KT 21/20 A2998 RMK A01 T02050202  RH  098%=      5-min Rain = 0
KCA1 261233Z 17013KT 21/20 A2998 RMK A01 T02050201  RH  098%=      5-min Rain = 0
KCA1 261234Z 17010KT 21/20 A2998 RMK A01 T02050201  RH  097%=      5-min Rain = 0
KCA1 261235Z 17011KT 21/20 A2998 RMK A01 T02050201  RH  097%=      5-min Rain = 0
KCA1 261236Z 17012KT 21/20 A2998 RMK A01 T02050201  RH  097%=      5-min Rain = 0
KCA1 261237Z 17011KT 21/20 A2998 RMK A01 T02050201  RH  097%=      5-min Rain = 0
KCA1 261238Z 17013KT 21/20 A2998 RMK A01 T02060201  RH  097%=      5-min Rain = 0
KCA1 261239Z 17011KT 21/20 A2998 RMK A01 T02060201  RH  097%=      5-min Rain = 0
KCA1 261240Z 17010KT 21/20 A2998 RMK A01 T02050201  RH  097%=      5-min Rain = 0
KCA1 261241Z 16011KT 21/20 A2998 RMK A01 T02050201  RH  097%=      5-min Rain = 0
KCA1 261242Z 16010KT 21/20 A2998 RMK A01 T02050201  RH  097%=      5-min Rain = 0
KCA1 261243Z 16011KT 21/20 A2998 RMK A01 T02050201  RH  097%=      5-min Rain = 0
KCA1 261244Z 17012KT 21/20 A2998 RMK A01 T02050201  RH  097%=      5-min Rain = 0
KCA1 261245Z 16012KT 21/20 A2999 RMK A01 T02050201  RH  097%=      5-min Rain = 0
KCA1 261246Z 17010KT 21/20 A2999 RMK A01 T02050201  RH  097%=      5-min Rain = 0
KCA1 261247Z 17010KT 21/20 A2999 RMK A01 T02050201  RH  097%=      5-min Rain = 0
KCA1 261248Z 17011KT 21/20 A2999 RMK A01 T02050201  RH  097%=      5-min Rain = 0
KCA1 261249Z 17012KT 21/20 A2999 RMK A01 T02060201  RH  097%=      5-min Rain = 0
KCA1 261250Z 16012KT 21/20 A2999 RMK A01 T02050201  RH  097%=      5-min Rain = 0
KCA1 261251Z 17014KT 21/20 A2999 RMK A01 T02060201  RH  097%=      5-min Rain = 0
KCA1 261252Z 17012KT 21/20 A2999 RMK A01 T02060201  RH  097%=      5-min Rain = 0
KCA1 261253Z 16012KT 21/20 A2999 RMK A01 T02060201  RH  097%=      5-min Rain = 0
KCA1 261254Z 16010KT 21/20 A2999 RMK A01 T02060201  RH  097%=      5-min Rain = 0
KCA1 261255Z 17011KT 21/20 A2999 RMK A01 T02060201  RH  097%=      5-min Rain = 0
KCA1 261256Z 16012KT 21/20 A2999 RMK A01 T02060201  RH  097%=      5-min Rain = 0
KCA1 261257Z 16012KT 21/20 A2999 RMK A01 T02060201  RH  097%=      5-min Rain = 0
KCA1 261258Z 17012KT 21/20 A2999 RMK A01 T02060201  RH  097%=      5-min Rain = 0
KCA1 261259Z 17010KT 21/20 A2999 RMK A01 T02060201  RH  097%=      5-min Rain = 0
KCA1 261300Z 17009KT 21/20 A2999 RMK A01 T02060201  RH  097%=      5-min Rain = 0
KCA1 261301Z 16011KT 21/20 A2999 RMK A01 T02060201  RH  097%=      5-min Rain = 0
KCA1 261302Z 17011KT 21/20 A2999 RMK A01 T02060202  RH  097%=      5-min Rain = 0
KCA1 261303Z 16009KT 21/20 A2999 RMK A01 T02060201  RH  097%=      5-min Rain = 0
KCA1 261304Z 16011KT 21/20 A2999 RMK A01 T02060201  RH  097%=      5-min Rain = 0
KCA1 261305Z 17012KT 21/20 A2999 RMK A01 T02060201  RH  097%=      5-min Rain = 0
KCA1 261306Z 16011KT 21/20 A2999 RMK A01 T02060202  RH  097%=      5-min Rain = 0
KCA1 261307Z 16010KT 21/20 A2999 RMK A01 T02060201  RH  097%=      5-min Rain = 0
KCA1 261308Z 16009KT 21/20 A2999 RMK A01 T02060202  RH  097%=      5-min Rain = 0
KCA1 261309Z 16012KT 21/20 A2999 RMK A01 T02060202  RH  098%=      5-min Rain = 0
KCA1 261310Z 16012KT 21/20 A2999 RMK A01 T02060202  RH  097%=      5-min Rain = 0
KCA1 261311Z 17011KT 21/20 A2999 RMK A01 T02060201  RH  097%=      5-min Rain = 0
KCA1 261312Z 16011KT 21/20 A2999 RMK A01 T02060201  RH  097%=      5-min Rain = 0
KCA1 261313Z 16012KT 21/20 A2999 RMK A01 T02060201  RH  097%=      5-min Rain = 0
KCA1 261314Z 16010KT 21/20 A2999 RMK A01 T02060201  RH  097%=      5-min Rain = 0
KCA1 261315Z 16010KT 21/20 A2999 RMK A01 T02060201  RH  097%=      5-min Rain = 0
KCA1 261316Z 16011KT 21/20 A2999 RMK A01 T02060201  RH  097%=      5-min Rain = 0
KCA1 261317Z 16010KT 21/20 A2999 RMK A01 T02060201  RH  097%=      5-min Rain = 0
KCA1 261318Z 16011KT 21/20 A2999 RMK A01 T02060201  RH  097%=      5-min Rain = 0
KCA1 261319Z 16012KT 21/20 A2999 RMK A01 T02060201  RH  097%=      5-min Rain = 0
KCA1 261320Z 16012KT 21/20 A2999 RMK A01 T02060201  RH  097%=      5-min Rain = 0
KCA1 261321Z 16011KT 21/20 A2999 RMK A01 T02060201  RH  097%=      5-min Rain = 0
KCA1 261322Z 16010KT 21/20 A30 RMK A01 T02060201  RH  097%=      5-min Rain = 0
KCA1 261323Z 16010KT 21/20 A30 RMK A01 T02060201  RH  097%=      5-min Rain = 0
KCA1 261324Z 16011KT 21/20 A30 RMK A01 T02060202  RH  097%=      5-min Rain = 0
KCA1 261325Z 15012KT 21/20 A2999 RMK A01 T02060202  RH  097%=      5-min Rain = 0
KCA1 261326Z 16010KT 21/20 A2999 RMK A01 T02060202  RH  097%=      5-min Rain = 0
KCA1 261327Z 16011KT 21/20 A2999 RMK A01 T02060202  RH  097%=      5-min Rain = 0
KCA1 261328Z 16012KT 21/20 A2999 RMK A01 T02070202  RH  097%=      5-min Rain = 0
KCA1 261329Z 16012KT 21/20 A2999 RMK A01 T02060202  RH  097%=      5-min Rain = 0
KCA1 261330Z 16010KT 21/20 A2999 RMK A01 T02060202  RH  097%=      5-min Rain = 0
KCA1 261331Z 16010KT 21/20 A2999 RMK A01 T02060202  RH  097%=      5-min Rain = 0
KCA1 261332Z 15012KT 21/20 A2999 RMK A01 T02060202  RH  097%=      5-min Rain = 0
KCA1 261333Z 16012KT 21/20 A2999 RMK A01 T02060202  RH  097%=      5-min Rain = 0
KCA1 261334Z 16011KT 21/20 A2999 RMK A01 T02060202  RH  097%=      5-min Rain = 0
KCA1 261335Z 16011KT 21/20 A30 RMK A01 T02060202  RH  097%=      5-min Rain = 0
KCA1 261336Z 16011KT 21/20 A30 RMK A01 T02060202  RH  097%=      5-min Rain = 0
KCA1 261337Z 16011KT 21/20 A30 RMK A01 T02060201  RH  097%=      5-min Rain = 0
KCA1 261338Z 17012KT 21/20 A30 RMK A01 T02060201  RH  097%=      5-min Rain = 0
KCA1 261339Z 16010KT 21/20 A30 RMK A01 T02060201  RH  097%=      5-min Rain = 0
KCA1 261340Z 16010KT 21/20 A30 RMK A01 T02060201  RH  097%=      5-min Rain = 0
KCA1 261341Z 16009KT 21/20 A30 RMK A01 T02060201  RH  097%=      5-min Rain = 0
KCA1 261342Z 16011KT 21/20 A30 RMK A01 T02060201  RH  097%=      5-min Rain = 0
KCA1 261343Z 16011KT 21/20 A30 RMK A01 T02060201  RH  097%=      5-min Rain = 0
KCA1 261344Z 16009KT 21/20 A30 RMK A01 T02060201  RH  097%=      5-min Rain = 0
KCA1 261345Z 16010KT 21/20 A30 RMK A01 T02060201  RH  097%=      5-min Rain = 0
KCA1 261346Z 17009KT 21/20 A30 RMK A01 T02060202  RH  097%=      5-min Rain = 0
KCA1 261347Z 17010KT 21/20 A30 RMK A01 T02060202  RH  097%=      5-min Rain = 0
KCA1 261348Z 16010G15KT 21/20 A30 RMK A01 T02060202  RH  097%=      5-min Rain = 0
KCA1 261349Z 16011KT 21/20 A30 RMK A01 T02060202  RH  097%=      5-min Rain = 0
KCA1 261350Z 16012KT 21/20 A30 RMK A01 T02060201  RH  097%=      5-min Rain = 0
KCA1 261351Z 17013KT 21/20 A30 RMK A01 T02060201  RH  097%=      5-min Rain = 0
KCA1 261352Z 16010KT 21/20 A30 RMK A01 T02060201  RH  096%=      5-min Rain = 0
KCA1 261353Z 16013KT 21/20 A30 RMK A01 T02070201  RH  096%=      5-min Rain = 0
KCA1 261354Z 17013KT 21/20 A30 RMK A01 T02070201  RH  096%=      5-min Rain = 0
KCA1 261355Z 16011KT 21/20 A30 RMK A01 T02070200  RH  096%=      5-min Rain = 0
KCA1 261356Z 16009KT 21/20 A30 RMK A01 T02070201  RH  096%=      5-min Rain = 0
KCA1 261357Z 16011KT 21/20 A30 RMK A01 T02070201  RH  097%=      5-min Rain = 0
KCA1 261358Z 17010KT 21/20 A30 RMK A01 T02070201  RH  097%=      5-min Rain = 0
KCA1 261359Z 16009KT 21/20 A30 RMK A01 T02070201  RH  097%=      5-min Rain = 0
KCA1 261400Z 16009KT 21/20 A30 RMK A01 T02070202  RH  097%=      5-min Rain = 0
KCA1 261401Z 16012KT 21/20 A30 RMK A01 T02070202  RH  097%=      5-min Rain = 0
KCA1 261402Z 17011KT 21/20 A30 RMK A01 T02070202  RH  097%=      5-min Rain = 0
KCA1 261403Z 17013KT 21/20 A30 RMK A01 T02070202  RH  097%=      5-min Rain = 0
KCA1 261404Z 16011KT 21/20 A30 RMK A01 T02070201  RH  097%=      5-min Rain = 0
KCA1 261405Z 16015KT 21/20 A30 RMK A01 T02070201  RH  096%=      5-min Rain = 0
KCA1 261406Z 16014KT 21/20 A30 RMK A01 T02070201  RH  096%=      5-min Rain = 0
KCA1 261407Z 16013KT 21/20 A30 RMK A01 T02080201  RH  096%=      5-min Rain = 0
KCA1 261408Z 16013KT 21/20 A30 RMK A01 T02080201  RH  096%=      5-min Rain = 0
KCA1 261409Z 16011KT 21/20 A30 RMK A01 T02080201  RH  096%=      5-min Rain = 0
KCA1 261410Z 16012KT 21/20 A30 RMK A01 T02080201  RH  096%=      5-min Rain = 0
KCA1 261411Z 16012KT 21/20 A30 RMK A01 T02080202  RH  096%=      5-min Rain = 0
KCA1 261412Z 16012KT 21/20 A30 RMK A01 T02080201  RH  096%=      5-min Rain = 0
KCA1 261413Z 16010KT 21/20 A30 RMK A01 T02080202  RH  096%=      5-min Rain = 0
KCA1 261414Z 17011KT 21/20 A30 RMK A01 T02080202  RH  096%=      5-min Rain = 0
KCA1 261415Z 16010KT 21/20 A30 RMK A01 T02070201  RH  096%=      5-min Rain = 0
KCA1 261416Z 17009KT 21/20 A3001 RMK A01 T02070202  RH  097%=      5-min Rain = 0
KCA1 261417Z 17011KT 21/20 A3001 RMK A01 T02070202  RH  097%=      5-min Rain = 0
KCA1 261418Z 16010KT 21/20 A3001 RMK A01 T02070202  RH  097%=      5-min Rain = 0
KCA1 261419Z 16012KT 21/20 A3001 RMK A01 T02070202  RH  097%=      5-min Rain = 0
KCA1 261420Z 16012KT 21/20 A3001 RMK A01 T02070201  RH  096%=      5-min Rain = 0
KCA1 261421Z 16013KT 21/20 A3001 RMK A01 T02070201  RH  096%=      5-min Rain = 0
KCA1 261422Z 16011KT 21/20 A3001 RMK A01 T02070201  RH  096%=      5-min Rain = 0
KCA1 261423Z 16011KT 21/20 A3001 RMK A01 T02070201  RH  096%=      5-min Rain = 0
KCA1 261424Z 16010KT 21/20 A3001 RMK A01 T02070201  RH  096%=      5-min Rain = 0
KCA1 261425Z 17010KT 21/20 A3001 RMK A01 T02070201  RH  096%=      5-min Rain = 0
KCA1 261426Z 16009KT 21/20 A3001 RMK A01 T02070201  RH  096%=      5-min Rain = 0
KCA1 261427Z 17012KT 21/20 A3001 RMK A01 T02080202  RH  097%=      5-min Rain = 0
KCA1 261428Z 16012KT 21/20 A3001 RMK A01 T02080201  RH  096%=      5-min Rain = 0
KCA1 261429Z 16014KT 21/20 A3001 RMK A01 T02080201  RH  096%=      5-min Rain = 0
KCA1 261430Z 16012KT 21/20 A30 RMK A01 T02080201  RH  095%=      5-min Rain = 0
KCA1 261431Z 16013KT 21/20 A30 RMK A01 T02080201  RH  095%=      5-min Rain = 0
KCA1 261432Z 16013KT 21/20 A30 RMK A01 T02090201  RH  095%=      5-min Rain = 0
KCA1 261433Z 17012KT 21/20 A3001 RMK A01 T02090201  RH  095%=      5-min Rain = 0
KCA1 261434Z 17012KT 21/20 A3001 RMK A01 T02090202  RH  096%=      5-min Rain = 0
KCA1 261435Z 16011KT 21/20 A3001 RMK A01 T02090202  RH  096%=      5-min Rain = 0
KCA1 261436Z 17012KT 21/20 A30 RMK A01 T02090202  RH  096%=      5-min Rain = 0
KCA1 261437Z 16011KT 21/20 A30 RMK A01 T02090202  RH  096%=      5-min Rain = 0
KCA1 261438Z 16011KT 21/20 A30 RMK A01 T02080202  RH  096%=      5-min Rain = 0
KCA1 261439Z 16013KT 21/20 A30 RMK A01 T02090202  RH  096%=      5-min Rain = 0
KCA1 261440Z 17012KT 21/20 A30 RMK A01 T02090202  RH  096%=      5-min Rain = 0
KCA1 261441Z 16013KT 21/20 A30 RMK A01 T02090202  RH  096%=      5-min Rain = 0
KCA1 261442Z 17015KT 21/20 A30 RMK A01 T02090201  RH  096%=      5-min Rain = 0
KCA1 261443Z 16010KT 21/20 A30 RMK A01 T02090202  RH  095%=      5-min Rain = 0
KCA1 261444Z 16009KT 21/20 A30 RMK A01 T02090203  RH  096%=      5-min Rain = 0
KCA1 261445Z 16015KT 21/20 A30 RMK A01 T02100202  RH  096%=      5-min Rain = 0
KCA1 261446Z 16015KT 21/20 A30 RMK A01 T02100201  RH  095%=      5-min Rain = 0
KCA1 261447Z 15012KT 21/20 A30 RMK A01 T02100201  RH  095%=      5-min Rain = 0
KCA1 261448Z 16013KT 21/20 A30 RMK A01 T02100202  RH  095%=      5-min Rain = 0
KCA1 261449Z 16010KT 21/20 A3001 RMK A01 T02110203  RH  095%=      5-min Rain = 0
KCA1 261450Z 17011G16KT 21/20 A3001 RMK A01 T02110203  RH  095%=      5-min Rain = 0
KCA1 261451Z 17015KT 21/20 A3001 RMK A01 T02110203  RH  095%=      5-min Rain = 0
KCA1 261452Z 17012KT 21/20 A3001 RMK A01 T02110202  RH  094%=      5-min Rain = 0
KCA1 261453Z 17011KT 21/20 A3001 RMK A01 T02110201  RH  094%=      5-min Rain = 0
KCA1 261454Z 17011KT 21/20 A3001 RMK A01 T02110201  RH  094%=      5-min Rain = 0
KCA1 261455Z 16013KT 21/20 A3001 RMK A01 T02100201  RH  094%=      5-min Rain = 0
KCA1 261456Z 16011KT 21/20 A3001 RMK A01 T02100201  RH  095%=      5-min Rain = 0
KCA1 261457Z 17010KT 21/20 A3001 RMK A01 T02100201  RH  095%=      5-min Rain = 0
KCA1 261458Z 17010KT 21/20 A3001 RMK A01 T02100202  RH  095%=      5-min Rain = 0
KCA1 261459Z 16010G16KT 21/20 A3001 RMK A01 T02100202  RH  095%=      5-min Rain = 0
KCA1 261500Z 16012KT 21/20 A3001 RMK A01 T02100202  RH  095%=      5-min Rain = 0
KCA1 261501Z 16011KT 21/20 A3001 RMK A01 T02100202  RH  095%=      5-min Rain = 0
KCA1 261502Z 16010KT 21/20 A3001 RMK A01 T02100202  RH  095%=      5-min Rain = 0
KCA1 261503Z 16014KT 21/20 A3001 RMK A01 T02100202  RH  095%=      5-min Rain = 0
KCA1 261504Z 16014KT 21/20 A3001 RMK A01 T02110201  RH  094%=      5-min Rain = 0
KCA1 261505Z 16013KT 21/20 A3001 RMK A01 T02110201  RH  094%=      5-min Rain = 0
KCA1 261506Z 17012KT 21/20 A3001 RMK A01 T02110202  RH  094%=      5-min Rain = 0
KCA1 261507Z 17012G17KT 21/20 A3001 RMK A01 T02120202  RH  094%=      5-min Rain = 0
KCA1 261508Z 17013KT 21/20 A3001 RMK A01 T02120202  RH  094%=      5-min Rain = 0
KCA1 261509Z 17011KT 21/20 A3001 RMK A01 T02130202  RH  094%=      5-min Rain = 0
KCA1 261510Z 18013KT 21/20 A3001 RMK A01 T02130202  RH  093%=      5-min Rain = 0
KCA1 261511Z 17012KT 21/20 A3001 RMK A01 T02130202  RH  093%=      5-min Rain = 0
KCA1 261512Z 18012KT 21/20 A3001 RMK A01 T02140203  RH  094%=      5-min Rain = 0
KCA1 261513Z 17010KT 21/20 A3001 RMK A01 T02140202  RH  093%=      5-min Rain = 0
KCA1 261514Z 17008KT 21/20 A3001 RMK A01 T02140203  RH  094%=      5-min Rain = 0
KCA1 261515Z 17008KT 21/20 A3001 RMK A01 T02140204  RH  094%=      5-min Rain = 0
KCA1 261516Z 17007KT 22/21 A3001 RMK A01 T02150205  RH  094%=      5-min Rain = 0
KCA1 261517Z 17007KT 22/21 A3001 RMK A01 T02150206  RH  095%=      5-min Rain = 0
KCA1 261518Z 17009KT 22/21 A3001 RMK A01 T02160207  RH  094%=      5-min Rain = 0
KCA1 261519Z 16009KT 22/21 A3001 RMK A01 T02160205  RH  093%=      5-min Rain = 0
KCA1 261520Z 17010KT 22/21 A3001 RMK A01 T02170206  RH  093%=      5-min Rain = 0
KCA1 261521Z 16011KT 22/20 A3001 RMK A01 T02170204  RH  092%=      5-min Rain = 0
KCA1 261522Z 17014KT 22/20 A3001 RMK A01 T02170203  RH  092%=      5-min Rain = 0
KCA1 261523Z 16013KT 22/20 A3001 RMK A01 T02170203  RH  092%=      5-min Rain = 0
KCA1 261524Z 17011KT 22/20 A3001 RMK A01 T02160203  RH  092%=      5-min Rain = 0
KCA1 261525Z 17011KT 22/20 A3001 RMK A01 T02170203  RH  092%=      5-min Rain = 0
KCA1 261526Z 18012G17KT 22/20 A3001 RMK A01 T02160203  RH  092%=      5-min Rain = 0
KCA1 261527Z 17014KT 22/20 A3001 RMK A01 T02160203  RH  092%=      5-min Rain = 0
KCA1 261528Z 18015KT 22/20 A3001 RMK A01 T02160203  RH  092%=      5-min Rain = 0
KCA1 261529Z 17016KT 22/20 A3001 RMK A01 T02160202  RH  092%=      5-min Rain = 0
KCA1 261530Z 17013KT 22/20 A3001 RMK A01 T02160202  RH  091%=      5-min Rain = 0
KCA1 261531Z 17016KT 22/20 A3001 RMK A01 T02160202  RH  091%=      5-min Rain = 0
KCA1 261532Z 18013KT 22/20 A3001 RMK A01 T02160202  RH  091%=      5-min Rain = 0
KCA1 261533Z 17013KT 22/20 A3001 RMK A01 T02160202  RH  092%=      5-min Rain = 0
KCA1 261534Z 18013KT 22/20 A3001 RMK A01 T02160202  RH  091%=      5-min Rain = 0
KCA1 261535Z 18015G20KT 22/20 A3001 RMK A01 T02160202  RH  092%=      5-min Rain = 0
KCA1 261536Z 18014KT 22/20 A3001 RMK A01 T02160201  RH  091%=      5-min Rain = 0
KCA1 261537Z 18014KT 22/20 A3001 RMK A01 T02160201  RH  091%=      5-min Rain = 0
KCA1 261538Z 18011KT 22/20 A3001 RMK A01 T02170202  RH  091%=      5-min Rain = 0
KCA1 261539Z 18012KT 22/20 A3001 RMK A01 T02170203  RH  092%=      5-min Rain = 0
KCA1 261540Z 18013KT 22/20 A3001 RMK A01 T02170202  RH  091%=      5-min Rain = 0
KCA1 261541Z 19012KT 22/20 A30 RMK A01 T02180202  RH  091%=      5-min Rain = 0
KCA1 261542Z 18013KT 22/20 A30 RMK A01 T02180203  RH  091%=      5-min Rain = 0
KCA1 261543Z 18011KT 22/20 A30 RMK A01 T02190203  RH  091%=      5-min Rain = 0
KCA1 261544Z 18014KT 22/20 A30 RMK A01 T02210203  RH  090%=      5-min Rain = 0
KCA1 261545Z 17011KT 22/21 A30 RMK A01 T02240206  RH  089%=      5-min Rain = 0
KCA1 261546Z 17010KT 23/21 A30 RMK A01 T02280208  RH  089%=      5-min Rain = 0
KCA1 261547Z 18010KT 23/21 A30 RMK A01 T02320212  RH  089%=      5-min Rain = 0
KCA1 261548Z 19013KT 24/21 A30 RMK A01 T02350209  RH  086%=      5-min Rain = 0
KCA1 261549Z 18013KT 24/21 A30 RMK A01 T02350208  RH  085%=      5-min Rain = 0
KCA1 261550Z 17012KT 23/21 A30 RMK A01 T02330207  RH  085%=      5-min Rain = 0
KCA1 261551Z 18014KT 23/21 A30 RMK A01 T02330207  RH  086%=      5-min Rain = 0
KCA1 261552Z 19013KT 23/21 A30 RMK A01 T02320206  RH  085%=      5-min Rain = 0
KCA1 261553Z 18012KT 23/21 A30 RMK A01 T02310206  RH  085%=      5-min Rain = 0
KCA1 261554Z 17015KT 23/21 A30 RMK A01 T02310206  RH  086%=      5-min Rain = 0
KCA1 261555Z 18016KT 23/21 A30 RMK A01 T02300205  RH  086%=      5-min Rain = 0
KCA1 261556Z 18014KT 23/20 A30 RMK A01 T02290204  RH  086%=      5-min Rain = 0
KCA1 261557Z 18016KT 23/21 A30 RMK A01 T02280205  RH  087%=      5-min Rain = 0
KCA1 261558Z 18014KT 23/21 A2999 RMK A01 T02290205  RH  087%=      5-min Rain = 0
KCA1 261559Z 18014KT 23/21 A2999 RMK A01 T02300207  RH  087%=      5-min Rain = 0
KCA1 261600Z 19014KT 23/21 A2999 RMK A01 T02320207  RH  086%=      5-min Rain = 0
KCA1 261601Z 18013KT 23/21 A2999 RMK A01 T02330207  RH  085%=      5-min Rain = 0
KCA1 261602Z 18012KT 23/21 A2999 RMK A01 T02320207  RH  086%=      5-min Rain = 0
KCA1 261603Z 18015KT 23/21 A2999 RMK A01 T02320207  RH  086%=      5-min Rain = 0
KCA1 261604Z 17012G17KT 23/21 A2999 RMK A01 T02330209  RH  086%=      5-min Rain = 0
KCA1 261605Z 17016KT 24/21 A2999 RMK A01 T02350208  RH  085%=      5-min Rain = 0
KCA1 261606Z 17017KT 24/21 A2999 RMK A01 T02360206  RH  083%=      5-min Rain = 0
KCA1 261607Z 17019KT 24/21 A2999 RMK A01 T02360205  RH  083%=      5-min Rain = 0
KCA1 261608Z 18018KT 24/21 A2999 RMK A01 T02360205  RH  083%=      5-min Rain = 0.01
KCA1 261609Z 18017KT 24/21 A2999 RMK A01 T02350205  RH  083%=      5-min Rain = 0
KCA1 261610Z 18016KT 24/21 A30 RMK A01 T02360206  RH  083%=      5-min Rain = 0
KCA1 261611Z 18017KT 24/21 A30 RMK A01 T02360205  RH  083%=      5-min Rain = 0
KCA1 261612Z 18015KT 24/21 A30 RMK A01 T02360206  RH  083%=      5-min Rain = 0
KCA1 261613Z 19015KT 24/21 A30 RMK A01 T02360207  RH  083%=      5-min Rain = 0
KCA1 261614Z 18017KT 24/21 A30 RMK A01 T02360206  RH  083%=      5-min Rain = 0
KCA1 261615Z 19015KT 24/21 A30 RMK A01 T02350205  RH  083%=      5-min Rain = 0
KCA1 261616Z 19016KT 23/20 A30 RMK A01 T02330204  RH  084%=      5-min Rain = 0
KCA1 261617Z 19015KT 23/21 A30 RMK A01 T02320206  RH  085%=      5-min Rain = 0
KCA1 261618Z 19014KT 23/21 A30 RMK A01 T02320205  RH  085%=      5-min Rain = 0
KCA1 261619Z 19016KT 23/21 A30 RMK A01 T02320205  RH  084%=      5-min Rain = 0
KCA1 261620Z 19014KT 23/21 A30 RMK A01 T02330205  RH  084%=      5-min Rain = 0
KCA1 261621Z 18017KT 23/21 A30 RMK A01 T02330205  RH  085%=      5-min Rain = 0
KCA1 261622Z 18018KT 23/20 A30 RMK A01 T02330204  RH  084%=      5-min Rain = 0
KCA1 261623Z 18016KT 23/20 A30 RMK A01 T02330204  RH  084%=      5-min Rain = 0
KCA1 261624Z 18015KT 23/20 A30 RMK A01 T02340203  RH  083%=      5-min Rain = 0
KCA1 261625Z 18015KT 23/20 A30 RMK A01 T02340204  RH  083%=      5-min Rain = 0
KCA1 261626Z 18014KT 24/21 A30 RMK A01 T02350206  RH  084%=      5-min Rain = 0
KCA1 261627Z 18016KT 24/21 A30 RMK A01 T02360206  RH  083%=      5-min Rain = 0
KCA1 261628Z 18014KT 24/21 A30 RMK A01 T02360205  RH  083%=      5-min Rain = 0
KCA1 261629Z 19014KT 24/21 A30 RMK A01 T02370206  RH  083%=      5-min Rain = 0
KCA1 261630Z 18013KT 24/21 A30 RMK A01 T02370207  RH  083%=      5-min Rain = 0
KCA1 261631Z 18010KT 24/21 A30 RMK A01 T02380208  RH  083%=      5-min Rain = 0
KCA1 261632Z 18013KT 24/21 A30 RMK A01 T02400210  RH  083%=      5-min Rain = 0
KCA1 261633Z 18015KT 24/21 A30 RMK A01 T02410207  RH  081%=      5-min Rain = 0
KCA1 261634Z 19013G18KT 24/21 A30 RMK A01 T02400205  RH  081%=      5-min Rain = 0
KCA1 261635Z 18012KT 24/21 A30 RMK A01 T02400208  RH  082%=      5-min Rain = 0
KCA1 261636Z 18016KT 24/21 A30 RMK A01 T02410208  RH  082%=      5-min Rain = 0
KCA1 261637Z 17015KT 24/21 A30 RMK A01 T02410205  RH  080%=      5-min Rain = 0
KCA1 261638Z 17015KT 24/21 A30 RMK A01 T02400207  RH  081%=      5-min Rain = 0
KCA1 261639Z 18013KT 24/21 A2999 RMK A01 T02400205  RH  081%=      5-min Rain = 0
KCA1 261640Z 17016KT 24/21 A2999 RMK A01 T02400206  RH  081%=      5-min Rain = 0
KCA1 261641Z 17017KT 24/20 A2999 RMK A01 T02400203  RH  080%=      5-min Rain = 0
KCA1 261642Z 18014KT 24/20 A2999 RMK A01 T02400203  RH  080%=      5-min Rain = 0
KCA1 261643Z 19013KT 24/21 A2999 RMK A01 T02400206  RH  081%=      5-min Rain = 0
KCA1 261644Z 18011KT 24/21 A2999 RMK A01 T02400207  RH  082%=      5-min Rain = 0
KCA1 261645Z 17015KT 24/21 A2999 RMK A01 T02390206  RH  082%=      5-min Rain = 0
KCA1 261646Z 17012KT 24/20 A2999 RMK A01 T02380204  RH  082%=      5-min Rain = 0
KCA1 261647Z 19014KT 24/21 A2999 RMK A01 T02370206  RH  083%=      5-min Rain = 0
KCA1 261648Z 19015KT 24/20 A2999 RMK A01 T02360204  RH  083%=      5-min Rain = 0
KCA1 261649Z 19013KT 23/21 A2999 RMK A01 T02340205  RH  083%=      5-min Rain = 0
KCA1 261650Z 18013KT 23/20 A2999 RMK A01 T02340204  RH  084%=      5-min Rain = 0
KCA1 261651Z 18012G17KT 23/21 A2999 RMK A01 T02330205  RH  084%=      5-min Rain = 0
KCA1 261652Z 17013KT 23/21 A2999 RMK A01 T02340205  RH  084%=      5-min Rain = 0
KCA1 261653Z 18013KT 24/21 A2999 RMK A01 T02360208  RH  085%=      5-min Rain = 0
KCA1 261654Z 18015KT 24/21 A2999 RMK A01 T02390208  RH  083%=      5-min Rain = 0
KCA1 261655Z 17016KT 24/20 A2999 RMK A01 T02390204  RH  081%=      5-min Rain = 0
KCA1 261656Z 17012KT 24/21 A2999 RMK A01 T02390205  RH  081%=      5-min Rain = 0
KCA1 261657Z 17013KT 24/21 A2999 RMK A01 T02390206  RH  082%=      5-min Rain = 0
KCA1 261658Z 17014KT 24/21 A2999 RMK A01 T02400206  RH  081%=      5-min Rain = 0
KCA1 261659Z 17014KT 24/20 A2999 RMK A01 T02400204  RH  080%=      5-min Rain = 0
KCA1 261700Z 17013KT 24/21 A2999 RMK A01 T02400205  RH  081%=      5-min Rain = 0
KCA1 261701Z 17014KT 24/21 A2999 RMK A01 T02400205  RH  081%=      5-min Rain = 0
KCA1 261702Z 17011KT 24/21 A2999 RMK A01 T02390206  RH  082%=      5-min Rain = 0
KCA1 261703Z 17017KT 24/21 A2999 RMK A01 T02390206  RH  082%=      5-min Rain = 0
KCA1 261704Z 16017KT 24/21 A2999 RMK A01 T02380206  RH  082%=      5-min Rain = 0
KCA1 261705Z 16017KT 24/21 A2999 RMK A01 T02360206  RH  083%=      5-min Rain = 0
KCA1 261706Z 16015KT 23/21 A2999 RMK A01 T02340205  RH  083%=      5-min Rain = 0
KCA1 261707Z 16015KT 23/21 A2999 RMK A01 T02330205  RH  084%=      5-min Rain = 0
KCA1 261708Z 15014KT 23/21 A2999 RMK A01 T02330207  RH  085%=      5-min Rain = 0
KCA1 261709Z 14015KT 24/21 A2998 RMK A01 T02350207  RH  084%=      5-min Rain = 0
KCA1 261710Z 16013KT 24/21 A2998 RMK A01 T02350207  RH  084%=      5-min Rain = 0
KCA1 261711Z 16016KT 24/21 A2998 RMK A01 T02350206  RH  084%=      5-min Rain = 0
KCA1 261712Z 15013KT 23/21 A2998 RMK A01 T02330205  RH  084%=      5-min Rain = 0
KCA1 261713Z 15013KT 23/21 A2998 RMK A01 T02330207  RH  085%=      5-min Rain = 0
KCA1 261714Z 14012KT 23/21 A2998 RMK A01 T02330207  RH  085%=      5-min Rain = 0
KCA1 261715Z 14015KT 23/21 A2998 RMK A01 T02340207  RH  085%=      5-min Rain = 0
KCA1 261716Z 14015KT 24/21 A2998 RMK A01 T02350206  RH  084%=      5-min Rain = 0
KCA1 261717Z 14013KT 24/21 A2998 RMK A01 T02350207  RH  084%=      5-min Rain = 0
KCA1 261718Z 14013G18KT 24/21 A2998 RMK A01 T02360207  RH  084%=      5-min Rain = 0
KCA1 261719Z 15011G16KT 24/21 A2998 RMK A01 T02360207  RH  084%=      5-min Rain = 0
KCA1 261720Z 15013G18KT 24/21 A2998 RMK A01 T02360209  RH  085%=      5-min Rain = 0
KCA1 261721Z 15015KT 24/21 A2998 RMK A01 T02370206  RH  083%=      5-min Rain = 0
KCA1 261722Z 14018KT 24/21 A2998 RMK A01 T02370206  RH  083%=      5-min Rain = 0
KCA1 261723Z 14014KT 24/21 A2998 RMK A01 T02360206  RH  083%=      5-min Rain = 0
KCA1 261724Z 15013KT 24/21 A2998 RMK A01 T02350206  RH  084%=      5-min Rain = 0
KCA1 261725Z 15012G17KT 24/21 A2998 RMK A01 T02360209  RH  085%=      5-min Rain = 0
KCA1 261726Z 15014KT 24/21 A2998 RMK A01 T02390209  RH  083%=      5-min Rain = 0
KCA1 261727Z 15014KT 24/21 A2998 RMK A01 T02410210  RH  083%=      5-min Rain = 0
KCA1 261728Z 15013KT 24/21 A2998 RMK A01 T02420210  RH  082%=      5-min Rain = 0
KCA1 261729Z 16017G22KT 24/21 A2997 RMK A01 T02430209  RH  081%=      5-min Rain = 0
KCA1 261730Z 15015KT 24/21 A2998 RMK A01 T02420205  RH  080%=      5-min Rain = 0
KCA1 261731Z 15017KT 24/21 A2998 RMK A01 T02400205  RH  081%=      5-min Rain = 0
KCA1 261732Z 16014KT 24/20 A2998 RMK A01 T02390203  RH  080%=      5-min Rain = 0
KCA1 261733Z 15012KT 24/21 A2998 RMK A01 T02380205  RH  082%=      5-min Rain = 0
KCA1 261734Z 15014KT 24/20 A2998 RMK A01 T02370204  RH  082%=      5-min Rain = 0
KCA1 261735Z 15014KT 24/20 A2998 RMK A01 T02370204  RH  082%=      5-min Rain = 0
KCA1 261736Z 16012KT 24/21 A2998 RMK A01 T02370205  RH  082%=      5-min Rain = 0
KCA1 261737Z 17016KT 24/20 A2998 RMK A01 T02370204  RH  082%=      5-min Rain = 0
KCA1 261738Z 16014KT 24/20 A2998 RMK A01 T02360202  RH  081%=      5-min Rain = 0
KCA1 261739Z 16014KT 24/20 A2998 RMK A01 T02360204  RH  082%=      5-min Rain = 0
KCA1 261740Z 16014KT 24/20 A2998 RMK A01 T02350203  RH  083%=      5-min Rain = 0
KCA1 261741Z 16015KT 24/20 A2998 RMK A01 T02350203  RH  082%=      5-min Rain = 0
KCA1 261742Z 16015KT 23/20 A2998 RMK A01 T02340203  RH  082%=      5-min Rain = 0
KCA1 261743Z 15015KT 23/20 A2998 RMK A01 T02340203  RH  083%=      5-min Rain = 0
KCA1 261744Z 15016KT 23/20 A2998 RMK A01 T02340203  RH  083%=      5-min Rain = 0
KCA1 261745Z 15015KT 23/20 A2998 RMK A01 T02330202  RH  083%=      5-min Rain = 0
KCA1 261746Z 15017KT 23/20 A2998 RMK A01 T02330203  RH  083%=      5-min Rain = 0
KCA1 261747Z 15015KT 23/20 A2998 RMK A01 T02330202  RH  083%=      5-min Rain = 0
KCA1 261748Z 15015KT 23/20 A2998 RMK A01 T02340203  RH  083%=      5-min Rain = 0
KCA1 261749Z 15017KT 24/20 A2998 RMK A01 T02350204  RH  083%=      5-min Rain = 0
KCA1 261750Z 16017KT 24/20 A2998 RMK A01 T02360203  RH  082%=      5-min Rain = 0
KCA1 261751Z 15015KT 24/20 A2998 RMK A01 T02350204  RH  083%=      5-min Rain = 0
KCA1 261752Z 15015KT 23/20 A2998 RMK A01 T02340203  RH  083%=      5-min Rain = 0
KCA1 261753Z 16012KT 23/20 A2998 RMK A01 T02330203  RH  083%=      5-min Rain = 0
KCA1 261754Z 17013KT 23/20 A2998 RMK A01 T02330204  RH  084%=      5-min Rain = 0
KCA1 261755Z 17014KT 23/20 A2998 RMK A01 T02320203  RH  083%=      5-min Rain = 0
KCA1 261756Z 17013KT 23/20 A2998 RMK A01 T02320203  RH  084%=      5-min Rain = 0
KCA1 261757Z 17012KT 23/20 A2998 RMK A01 T02320201  RH  083%=      5-min Rain = 0
KCA1 261758Z 17011KT 23/20 A2998 RMK A01 T02310201  RH  083%=      5-min Rain = 0
KCA1 261759Z 16012KT 23/20 A2998 RMK A01 T02310202  RH  084%=      5-min Rain = 0
KCA1 261800Z 16014KT 23/20 A2998 RMK A01 T02310203  RH  084%=      5-min Rain = 0
KCA1 261801Z 16014KT 23/20 A2998 RMK A01 T02300202  RH  084%=      5-min Rain = 0
KCA1 261802Z 16015KT 23/20 A2998 RMK A01 T02290202  RH  085%=      5-min Rain = 0
KCA1 261803Z 17013KT 23/20 A2998 RMK A01 T02280202  RH  085%=      5-min Rain = 0
KCA1 261804Z 17014KT 23/20 A2998 RMK A01 T02280201  RH  085%=      5-min Rain = 0
KCA1 261805Z 16016KT 23/20 A2998 RMK A01 T02270200  RH  084%=      5-min Rain = 0
KCA1 261806Z 16016KT 23/20 A2998 RMK A01 T02270199  RH  084%=      5-min Rain = 0
KCA1 261807Z 16015KT 23/20 A2998 RMK A01 T02260199  RH  084%=      5-min Rain = 0
KCA1 261808Z 16012KT 23/20 A2998 RMK A01 T02260200  RH  086%=      5-min Rain = 0
KCA1 261809Z 17014KT 23/20 A2998 RMK A01 T02250200  RH  086%=      5-min Rain = 0
KCA1 261810Z 17014KT 23/20 A2998 RMK A01 T02250200  RH  085%=      5-min Rain = 0
KCA1 261811Z 17011KT 23/20 A2998 RMK A01 T02260200  RH  085%=      5-min Rain = 0
KCA1 261812Z 17010KT 23/20 A2998 RMK A01 T02260201  RH  086%=      5-min Rain = 0
KCA1 261813Z 17011KT 23/20 A2998 RMK A01 T02270203  RH  086%=      5-min Rain = 0
KCA1 261814Z 17009KT 23/20 A2998 RMK A01 T02280203  RH  085%=      5-min Rain = 0
KCA1 261815Z 16011KT 23/20 A2998 RMK A01 T02290204  RH  085%=      5-min Rain = 0
KCA1 261816Z 17009KT 23/21 A2998 RMK A01 T02310205  RH  085%=      5-min Rain = 0
KCA1 261817Z 17010KT 23/21 A2998 RMK A01 T02320206  RH  085%=      5-min Rain = 0
KCA1 261818Z 17011KT 23/20 A2998 RMK A01 T02320204  RH  084%=      5-min Rain = 0
KCA1 261819Z 16014KT 23/20 A2998 RMK A01 T02320202  RH  083%=      5-min Rain = 0
KCA1 261820Z 17010KT 23/20 A2998 RMK A01 T02310201  RH  083%=      5-min Rain = 0
KCA1 261821Z 18014KT 23/20 A2998 RMK A01 T02310202  RH  084%=      5-min Rain = 0
KCA1 261822Z 17013KT 23/20 A2998 RMK A01 T02300200  RH  083%=      5-min Rain = 0
KCA1 261823Z 17013KT 23/20 A2998 RMK A01 T02290201  RH  084%=      5-min Rain = 0
KCA1 261824Z 17012KT 23/20 A2998 RMK A01 T02290201  RH  084%=      5-min Rain = 0
KCA1 261825Z 18014KT 23/20 A2998 RMK A01 T02290199  RH  083%=      5-min Rain = 0
KCA1 261826Z 17011KT 23/20 A2998 RMK A01 T02290200  RH  084%=      5-min Rain = 0
KCA1 261827Z 16011KT 23/20 A2997 RMK A01 T02290201  RH  084%=      5-min Rain = 0
KCA1 261828Z 16010KT 23/20 A2997 RMK A01 T02300202  RH  084%=      5-min Rain = 0
KCA1 261829Z 16010KT 23/20 A2997 RMK A01 T02310203  RH  084%=      5-min Rain = 0
KCA1 261830Z 16012KT 23/20 A2997 RMK A01 T02330203  RH  083%=      5-min Rain = 0
KCA1 261831Z 16012KT 23/20 A2997 RMK A01 T02340202  RH  082%=      5-min Rain = 0
KCA1 261832Z 16015KT 23/20 A2997 RMK A01 T02340201  RH  082%=      5-min Rain = 0
KCA1 261833Z 16013KT 23/20 A2997 RMK A01 T02340200  RH  081%=      5-min Rain = 0
KCA1 261834Z 17013KT 23/20 A2997 RMK A01 T02340201  RH  082%=      5-min Rain = 0
KCA1 261835Z 17016KT 23/20 A2996 RMK A01 T02340201  RH  082%=      5-min Rain = 0
KCA1 261836Z 16015KT 23/20 A2997 RMK A01 T02330199  RH  081%=      5-min Rain = 0
KCA1 261837Z 16015KT 23/20 A2997 RMK A01 T02320198  RH  081%=      5-min Rain = 0
KCA1 261838Z 17014KT 23/20 A2997 RMK A01 T02310198  RH  081%=      5-min Rain = 0
KCA1 261839Z 17014KT 23/20 A2997 RMK A01 T02310199  RH  082%=      5-min Rain = 0
KCA1 261840Z 16014KT 23/20 A2997 RMK A01 T02310199  RH  082%=      5-min Rain = 0
KCA1 261841Z 16012KT 23/20 A2997 RMK A01 T02310200  RH  083%=      5-min Rain = 0
KCA1 261842Z 17014KT 23/20 A2997 RMK A01 T02310201  RH  083%=      5-min Rain = 0
KCA1 261843Z 17014KT 23/20 A2997 RMK A01 T02310198  RH  082%=      5-min Rain = 0
KCA1 261844Z 17013KT 23/20 A2997 RMK A01 T02310199  RH  082%=      5-min Rain = 0
KCA1 261845Z 16014KT 23/20 A2997 RMK A01 T02310199  RH  082%=      5-min Rain = 0
KCA1 261846Z 16011KT 23/20 A2997 RMK A01 T02310199  RH  082%=      5-min Rain = 0
KCA1 261847Z 16012KT 23/20 A2996 RMK A01 T02310200  RH  083%=      5-min Rain = 0
KCA1 261848Z 16014KT 23/20 A2996 RMK A01 T02310199  RH  082%=      5-min Rain = 0
KCA1 261849Z 15013KT 23/20 A2996 RMK A01 T02300199  RH  082%=      5-min Rain = 0
KCA1 261850Z 15013KT 23/20 A2996 RMK A01 T02300199  RH  083%=      5-min Rain = 0
KCA1 261851Z 15013KT 23/20 A2996 RMK A01 T02300200  RH  083%=      5-min Rain = 0
KCA1 261852Z 15011KT 23/20 A2996 RMK A01 T02300201  RH  083%=      5-min Rain = 0
KCA1 261853Z 16013KT 23/20 A2996 RMK A01 T02320203  RH  084%=      5-min Rain = 0
KCA1 261854Z 16013KT 23/20 A2995 RMK A01 T02340201  RH  082%=      5-min Rain = 0
KCA1 261855Z 17011KT 24/20 A2996 RMK A01 T02360203  RH  082%=      5-min Rain = 0
KCA1 261856Z 16011KT 24/20 A2995 RMK A01 T02380203  RH  081%=      5-min Rain = 0
KCA1 261857Z 16010KT 24/20 A2995 RMK A01 T02390204  RH  081%=      5-min Rain = 0
KCA1 261858Z 16011G16KT 24/20 A2995 RMK A01 T02390204  RH  081%=      5-min Rain = 0
KCA1 261859Z 17013KT 24/20 A2995 RMK A01 T02390201  RH  079%=      5-min Rain = 0
KCA1 261900Z 16015KT 24/20 A2995 RMK A01 T02380201  RH  080%=      5-min Rain = 0
KCA1 261901Z 16014KT 24/20 A2995 RMK A01 T02360199  RH  080%=      5-min Rain = 0
KCA1 261902Z 16011KT 23/20 A2995 RMK A01 T02340200  RH  081%=      5-min Rain = 0
KCA1 261903Z 16014KT 23/20 A2995 RMK A01 T02340201  RH  082%=      5-min Rain = 0
KCA1 261904Z 17013KT 23/20 A2995 RMK A01 T02330200  RH  082%=      5-min Rain = 0
KCA1 261905Z 17014KT 23/20 A2995 RMK A01 T02330201  RH  082%=      5-min Rain = 0
KCA1 261906Z 17014KT 23/20 A2995 RMK A01 T02340202  RH  082%=      5-min Rain = 0
KCA1 261907Z 17012KT 23/20 A2995 RMK A01 T02340202  RH  082%=      5-min Rain = 0
KCA1 261908Z 16012G17KT 24/20 A2995 RMK A01 T02350204  RH  083%=      5-min Rain = 0
KCA1 261909Z 16019KT 24/20 A2995 RMK A01 T02350200  RH  081%=      5-min Rain = 0
KCA1 261910Z 16016KT 23/20 A2995 RMK A01 T02330198  RH  080%=      5-min Rain = 0
KCA1 261911Z 16017KT 23/20 A2995 RMK A01 T02320198  RH  081%=      5-min Rain = 0
KCA1 261912Z 15017KT 23/20 A2995 RMK A01 T02300198  RH  082%=      5-min Rain = 0
KCA1 261913Z 16013KT 23/20 A2995 RMK A01 T02300199  RH  083%=      5-min Rain = 0
KCA1 261914Z 16014KT 23/20 A2995 RMK A01 T02300200  RH  083%=      5-min Rain = 0
KCA1 261915Z 16015KT 23/20 A2995 RMK A01 T02310200  RH  083%=      5-min Rain = 0
KCA1 261916Z 16013G18KT 23/20 A2995 RMK A01 T02310201  RH  083%=      5-min Rain = 0
KCA1 261917Z 17013KT 23/20 A2995 RMK A01 T02320202  RH  083%=      5-min Rain = 0
KCA1 261918Z 16013KT 23/20 A2995 RMK A01 T02330202  RH  083%=      5-min Rain = 0
KCA1 261919Z 16018KT 23/20 A2995 RMK A01 T02330201  RH  082%=      5-min Rain = 0
KCA1 261920Z 16015KT 23/20 A2995 RMK A01 T02330201  RH  082%=      5-min Rain = 0
KCA1 261921Z 17015KT 23/20 A2995 RMK A01 T02320200  RH  082%=      5-min Rain = 0
KCA1 261922Z 17015KT 23/20 A2995 RMK A01 T02310200  RH  083%=      5-min Rain = 0
KCA1 261923Z 17016KT 23/20 A2995 RMK A01 T02300198  RH  082%=      5-min Rain = 0
KCA1 261924Z 17015KT 23/20 A2995 RMK A01 T02300198  RH  082%=      5-min Rain = 0
KCA1 261925Z 16018KT 23/20 A2995 RMK A01 T02300197  RH  082%=      5-min Rain = 0
KCA1 261926Z 17017KT 23/20 A2995 RMK A01 T02310198  RH  082%=      5-min Rain = 0
KCA1 261927Z 17017KT 23/20 A2995 RMK A01 T02310198  RH  082%=      5-min Rain = 0
KCA1 261928Z 17016KT 23/20 A2995 RMK A01 T02310197  RH  081%=      5-min Rain = 0
KCA1 261929Z 17016KT 23/20 A2995 RMK A01 T02310199  RH  082%=      5-min Rain = 0
KCA1 261930Z 16015G20KT 23/20 A2995 RMK A01 T02310198  RH  082%=      5-min Rain = 0
KCA1 261931Z 16014KT 23/20 A2995 RMK A01 T02310198  RH  082%=      5-min Rain = 0
KCA1 261932Z 16015KT 23/20 A2995 RMK A01 T02310199  RH  082%=      5-min Rain = 0
KCA1 261933Z 16015KT 23/20 A2995 RMK A01 T02310198  RH  082%=      5-min Rain = 0
KCA1 261934Z 16014KT 23/20 A2995 RMK A01 T02310198  RH  081%=      5-min Rain = 0
KCA1 261935Z 16012KT 23/20 A2995 RMK A01 T02300198  RH  082%=      5-min Rain = 0
KCA1 261936Z 15012KT 23/20 A2995 RMK A01 T02300199  RH  083%=      5-min Rain = 0
KCA1 261937Z 15014KT 23/20 A2995 RMK A01 T02290198  RH  083%=      5-min Rain = 0
KCA1 261938Z 15017KT 23/20 A2995 RMK A01 T02280197  RH  083%=      5-min Rain = 0
KCA1 261939Z 16017KT 23/20 A2995 RMK A01 T02280197  RH  083%=      5-min Rain = 0
KCA1 261940Z 16018KT 23/20 A2995 RMK A01 T02280197  RH  083%=      5-min Rain = 0
KCA1 261941Z 15017KT 23/20 A2995 RMK A01 T02280197  RH  083%=      5-min Rain = 0
KCA1 261942Z 16015KT 23/20 A2995 RMK A01 T02280198  RH  083%=      5-min Rain = 0
KCA1 261943Z 16014KT 23/20 A2995 RMK A01 T02280199  RH  083%=      5-min Rain = 0
KCA1 261944Z 16016KT 23/20 A2995 RMK A01 T02280198  RH  083%=      5-min Rain = 0
KCA1 261945Z 16015KT 23/20 A2995 RMK A01 T02280198  RH  083%=      5-min Rain = 0
KCA1 261946Z 16018KT 23/20 A2995 RMK A01 T02280199  RH  084%=      5-min Rain = 0
KCA1 261947Z 16017KT 23/20 A2995 RMK A01 T02270197  RH  083%=      5-min Rain = 0
KCA1 261948Z 16015KT 23/20 A2995 RMK A01 T02270197  RH  083%=      5-min Rain = 0
KCA1 261949Z 16014KT 23/20 A2995 RMK A01 T02270198  RH  083%=      5-min Rain = 0
KCA1 261950Z 17017KT 23/20 A2995 RMK A01 T02270197  RH  083%=      5-min Rain = 0
KCA1 261951Z 16013KT 23/20 A2995 RMK A01 T02270198  RH  083%=      5-min Rain = 0
KCA1 261952Z 15011KT 23/20 A2995 RMK A01 T02270199  RH  084%=      5-min Rain = 0
KCA1 261953Z 16013KT 23/20 A2995 RMK A01 T02270200  RH  085%=      5-min Rain = 0
KCA1 261954Z 16012KT 23/20 A2995 RMK A01 T02270199  RH  084%=      5-min Rain = 0
KCA1 261955Z 15014KT 23/20 A2995 RMK A01 T02270199  RH  084%=      5-min Rain = 0
KCA1 261956Z 16014KT 23/20 A2995 RMK A01 T02270199  RH  084%=      5-min Rain = 0
KCA1 261957Z 15016KT 23/20 A2995 RMK A01 T02270198  RH  083%=      5-min Rain = 0
KCA1 261958Z 15015KT 23/20 A2995 RMK A01 T02270197  RH  083%=      5-min Rain = 0
KCA1 261959Z 15016KT 23/20 A2995 RMK A01 T02280198  RH  083%=      5-min Rain = 0
KCA1 262000Z 16014KT 23/20 A2995 RMK A01 T02270197  RH  083%=      5-min Rain = 0
KCA1 262001Z 15013G18KT 23/20 A2995 RMK A01 T02270198  RH  084%=      5-min Rain = 0
KCA1 262002Z 16015KT 23/20 A2995 RMK A01 T02260199  RH  084%=      5-min Rain = 0
KCA1 262003Z 16016KT 23/20 A2994 RMK A01 T02260198  RH  084%=      5-min Rain = 0
KCA1 262004Z 15015KT 23/20 A2994 RMK A01 T02260198  RH  084%=      5-min Rain = 0
KCA1 262005Z 16012KT 23/20 A2994 RMK A01 T02270199  RH  084%=      5-min Rain = 0
KCA1 262006Z 16015KT 23/20 A2994 RMK A01 T02270199  RH  084%=      5-min Rain = 0
KCA1 262007Z 16012KT 23/20 A2994 RMK A01 T02270198  RH  084%=      5-min Rain = 0
KCA1 262008Z 16016KT 23/20 A2994 RMK A01 T02260199  RH  084%=      5-min Rain = 0
KCA1 262009Z 15016KT 23/20 A2994 RMK A01 T02260198  RH  084%=      5-min Rain = 0
KCA1 262010Z 15014KT 23/20 A2994 RMK A01 T02260198  RH  084%=      5-min Rain = 0
KCA1 262011Z 15015KT 23/20 A2994 RMK A01 T02260200  RH  085%=      5-min Rain = 0
KCA1 262012Z 16013KT 23/20 A2994 RMK A01 T02260199  RH  084%=      5-min Rain = 0
KCA1 262013Z 15013G18KT 23/20 A2994 RMK A01 T02270200  RH  085%=      5-min Rain = 0
KCA1 262014Z 15015KT 23/20 A2994 RMK A01 T02270200  RH  085%=      5-min Rain = 0
KCA1 262015Z 16016G21KT 23/20 A2994 RMK A01 T02270199  RH  084%=      5-min Rain = 0
KCA1 262016Z 16020KT 23/20 A2994 RMK A01 T02250198  RH  084%=      5-min Rain = 0
KCA1 262017Z 16019KT 23/20 A2994 RMK A01 T02250196  RH  084%=      5-min Rain = 0
KCA1 262018Z 15020KT 22/20 A2994 RMK A01 T02240196  RH  084%=      5-min Rain = 0
KCA1 262019Z 16017G22KT 22/20 A2994 RMK A01 T02240196  RH  084%=      5-min Rain = 0
KCA1 262020Z 15018KT 22/20 A2994 RMK A01 T02240197  RH  085%=      5-min Rain = 0
KCA1 262021Z 15018G25KT 22/20 A2994 RMK A01 T02240196  RH  085%=      5-min Rain = 0
KCA1 262022Z 15021KT 22/20 A2994 RMK A01 T02230196  RH  085%=      5-min Rain = 0
KCA1 262023Z 15018KT 22/20 A2995 RMK A01 T02220195  RH  085%=      5-min Rain = 0
KCA1 262024Z 15019KT 22/20 A2994 RMK A01 T02210195  RH  085%=      5-min Rain = 0
KCA1 262025Z 15019G24KT 22/20 A2995 RMK A01 T02210196  RH  085%=      5-min Rain = 0
KCA1 262026Z 15019KT 22/20 A2995 RMK A01 T02200195  RH  086%=      5-min Rain = 0
KCA1 262027Z 14019KT 22/20 A2995 RMK A01 T02190195  RH  086%=      5-min Rain = 0
KCA1 262028Z 15017KT 22/20 A2995 RMK A01 T02190195  RH  086%=      5-min Rain = 0
KCA1 262029Z 16017G22KT 22/20 A2995 RMK A01 T02190195  RH  086%=      5-min Rain = 0
KCA1 262030Z 15016KT 22/20 A2995 RMK A01 T02190195  RH  086%=      5-min Rain = 0
KCA1 262031Z 15017KT 22/20 A2995 RMK A01 T02190195  RH  086%=      5-min Rain = 0
KCA1 262032Z 15016KT 22/20 A2995 RMK A01 T02190196  RH  086%=      5-min Rain = 0
KCA1 262033Z 15016KT 22/20 A2995 RMK A01 T02190196  RH  087%=      5-min Rain = 0
KCA1 262034Z 15018KT 22/20 A2995 RMK A01 T02190195  RH  086%=      5-min Rain = 0
KCA1 262035Z 15016KT 22/20 A2995 RMK A01 T02190195  RH  086%=      5-min Rain = 0
KCA1 262036Z 15018KT 22/20 A2995 RMK A01 T02190195  RH  086%=      5-min Rain = 0
KCA1 262037Z 16016KT 22/20 A2995 RMK A01 T02190195  RH  086%=      5-min Rain = 0
KCA1 262038Z 16016KT 22/20 A2995 RMK A01 T02190195  RH  086%=      5-min Rain = 0
KCA1 262039Z 16015KT 22/20 A2995 RMK A01 T02190195  RH  086%=      5-min Rain = 0
KCA1 262040Z 16013KT 22/20 A2995 RMK A01 T02180195  RH  087%=      5-min Rain = 0
KCA1 262041Z 15015KT 22/20 A2995 RMK A01 T02180195  RH  087%=      5-min Rain = 0
KCA1 262042Z 16017KT 22/20 A2995 RMK A01 T02180196  RH  087%=      5-min Rain = 0
KCA1 262043Z 16017KT 22/20 A2994 RMK A01 T02170196  RH  088%=      5-min Rain = 0
KCA1 262044Z 16014KT 22/20 A2995 RMK A01 T02160196  RH  089%=      5-min Rain = 0
KCA1 262045Z 15014KT 22/20 A2995 RMK A01 T02150197  RH  090%=      5-min Rain = 0
KCA1 262046Z 16016KT 21/20 A2995 RMK A01 T02140198  RH  090%=      5-min Rain = 0
KCA1 262047Z 15016G21KT 21/20 A2995 RMK A01 T02130198  RH  091%=      5-min Rain = 0
KCA1 262048Z 15015KT 21/20 A2995 RMK A01 T02120198  RH  091%=      5-min Rain = 0
KCA1 262049Z 16020KT 21/20 A2995 RMK A01 T02110199  RH  092%=      5-min Rain = 0
KCA1 262050Z 16018KT 21/20 A2995 RMK A01 T02100199  RH  093%=      5-min Rain = 0
KCA1 262051Z 16017G23KT 21/20 A2995 RMK A01 T02090199  RH  094%=      5-min Rain = 0
KCA1 262052Z 16018KT 21/20 A2995 RMK A01 T02080200  RH  096%=      5-min Rain = 0
KCA1 262053Z 16018KT 21/20 A2995 RMK A01 T02070201  RH  096%=      5-min Rain = 0
KCA1 262054Z 16017KT 21/20 A2995 RMK A01 T02060201  RH  097%=      5-min Rain = 0
KCA1 262055Z 16014KT 21/20 A2996 RMK A01 T02060201  RH  097%=      5-min Rain = 0
KCA1 262056Z 16013KT 21/20 A2996 RMK A01 T02050202  RH  098%=      5-min Rain = 0
KCA1 262057Z 16015KT 21/20 A2996 RMK A01 T02050203  RH  098%=      5-min Rain = 0
KCA1 262058Z 16015KT 21/20 A2996 RMK A01 T02050202  RH  098%=      5-min Rain = 0
KCA1 262059Z 17011KT 20/20 A2996 RMK A01 T02040202  RH  098%=      5-min Rain = 0
KCA1 262100Z 16015KT 20/20 A2996 RMK A01 T02040202  RH  098%=      5-min Rain = 0
KCA1 262101Z 17013G18KT 21/20 A2996 RMK A01 T02050202  RH  098%=      5-min Rain = 0
KCA1 262102Z 17012KT 20/20 A2997 RMK A01 T02040202  RH  098%=      5-min Rain = 0
KCA1 262103Z 17012KT 21/20 A2997 RMK A01 T02050202  RH  098%=      5-min Rain = 0
KCA1 262104Z 17010KT 21/20 A2997 RMK A01 T02050202  RH  098%=      5-min Rain = 0
KCA1 262105Z 17010KT 21/20 A2997 RMK A01 T02050202  RH  098%=      5-min Rain = 0
KCA1 262106Z 17010KT 21/20 A2997 RMK A01 T02050202  RH  098%=      5-min Rain = 0
KCA1 262107Z 18009KT 21/20 A2997 RMK A01 T02050202  RH  098%=      5-min Rain = 0
KCA1 262108Z 17009KT 21/20 A2997 RMK A01 T02050202  RH  098%=      5-min Rain = 0
KCA1 262109Z 17009KT 21/20 A2998 RMK A01 T02060203  RH  098%=      5-min Rain = 0
KCA1 262110Z 17010KT 21/20 A2998 RMK A01 T02060202  RH  098%=      5-min Rain = 0
KCA1 262111Z 17010KT 21/20 A2998 RMK A01 T02060202  RH  098%=      5-min Rain = 0
KCA1 262112Z 18010KT 21/20 A2998 RMK A01 T02060202  RH  097%=      5-min Rain = 0
KCA1 262113Z 17008KT 21/20 A2998 RMK A01 T02070202  RH  097%=      5-min Rain = 0
KCA1 262114Z 18008KT 21/20 A2998 RMK A01 T02070202  RH  097%=      5-min Rain = 0
KCA1 262115Z 18011KT 21/20 A2998 RMK A01 T02070202  RH  097%=      5-min Rain = 0
KCA1 262116Z 18009KT 21/20 A2998 RMK A01 T02080202  RH  097%=      5-min Rain = 0
KCA1 262117Z 17006KT 21/20 A2997 RMK A01 T02080202  RH  097%=      5-min Rain = 0
KCA1 262118Z 18008KT 21/20 A2997 RMK A01 T02080203  RH  097%=      5-min Rain = 0
KCA1 262119Z 17009KT 21/20 A2997 RMK A01 T02080202  RH  097%=      5-min Rain = 0
KCA1 262120Z 17008KT 21/20 A2997 RMK A01 T02080202  RH  096%=      5-min Rain = 0
KCA1 262121Z 17009KT 21/20 A2997 RMK A01 T02080202  RH  096%=      5-min Rain = 0
KCA1 262122Z 17008KT 21/20 A2997 RMK A01 T02080202  RH  096%=      5-min Rain = 0
KCA1 262123Z 16009KT 21/20 A2997 RMK A01 T02080203  RH  097%=      5-min Rain = 0
KCA1 262124Z 17010KT 21/20 A2997 RMK A01 T02080203  RH  097%=      5-min Rain = 0
KCA1 262125Z 16008KT 21/20 A2997 RMK A01 T02080204  RH  097%=      5-min Rain = 0
KCA1 262126Z 18011KT 21/20 A2998 RMK A01 T02080204  RH  098%=      5-min Rain = 0
KCA1 262127Z 17014G19KT 21/20 A2998 RMK A01 T02080204  RH  097%=      5-min Rain = 0
KCA1 262128Z 17014KT 21/20 A2997 RMK A01 T02080201  RH  096%=      5-min Rain = 0
KCA1 262129Z 17013KT 21/20 A2997 RMK A01 T02080200  RH  095%=      5-min Rain = 0
KCA1 262130Z 17013KT 21/20 A2997 RMK A01 T02080200  RH  095%=      5-min Rain = 0
KCA1 262131Z 17014KT 21/20 A2997 RMK A01 T02080200  RH  095%=      5-min Rain = 0
KCA1 262132Z 18012KT 21/20 A2997 RMK A01 T02080200  RH  095%=      5-min Rain = 0
KCA1 262133Z 18013KT 21/20 A2997 RMK A01 T02080200  RH  095%=      5-min Rain = 0
KCA1 262134Z 18011KT 21/20 A2997 RMK A01 T02080199  RH  095%=      5-min Rain = 0
KCA1 262135Z 18010G15KT 21/20 A2997 RMK A01 T02080199  RH  095%=      5-min Rain = 0
KCA1 262136Z 18011KT 21/20 A2997 RMK A01 T02080200  RH  095%=      5-min Rain = 0
KCA1 262137Z 19014KT 21/20 A2997 RMK A01 T02080199  RH  095%=      5-min Rain = 0
KCA1 262138Z 18013KT 21/20 A2997 RMK A01 T02080198  RH  094%=      5-min Rain = 0
KCA1 262139Z 19013KT 21/20 A2997 RMK A01 T02090198  RH  094%=      5-min Rain = 0
KCA1 262140Z 18013KT 21/20 A2997 RMK A01 T02080198  RH  094%=      5-min Rain = 0
KCA1 262141Z 18012KT 21/20 A2997 RMK A01 T02080198  RH  094%=      5-min Rain = 0
KCA1 262142Z 18011KT 21/20 A2997 RMK A01 T02090198  RH  094%=      5-min Rain = 0
KCA1 262143Z 18010KT 21/20 A2997 RMK A01 T02090199  RH  094%=      5-min Rain = 0
KCA1 262144Z 18010KT 21/20 A2997 RMK A01 T02080200  RH  095%=      5-min Rain = 0
KCA1 262145Z 19009KT 21/20 A2997 RMK A01 T02080200  RH  095%=      5-min Rain = 0
KCA1 262146Z 19011KT 21/20 A2996 RMK A01 T02080200  RH  096%=      5-min Rain = 0
KCA1 262147Z 18013KT 21/20 A2996 RMK A01 T02080200  RH  095%=      5-min Rain = 0
KCA1 262148Z 18010KT 21/20 A2996 RMK A01 T02080200  RH  095%=      5-min Rain = 0
KCA1 262149Z 18011KT 21/20 A2996 RMK A01 T02080200  RH  095%=      5-min Rain = 0
KCA1 262150Z 18010KT 21/20 A2996 RMK A01 T02080199  RH  095%=      5-min Rain = 0
KCA1 262151Z 18009KT 21/20 A2996 RMK A01 T02080200  RH  095%=      5-min Rain = 0
KCA1 262152Z 17009KT 21/20 A2996 RMK A01 T02080200  RH  095%=      5-min Rain = 0
KCA1 262153Z 17010KT 21/20 A2996 RMK A01 T02080200  RH  095%=      5-min Rain = 0
KCA1 262154Z 17014KT 21/20 A2995 RMK A01 T02080199  RH  095%=      5-min Rain = 0
KCA1 262155Z 18014KT 21/20 A2995 RMK A01 T02080198  RH  094%=      5-min Rain = 0
KCA1 262156Z 18014KT 21/20 A2995 RMK A01 T02080198  RH  094%=      5-min Rain = 0
KCA1 262157Z 17014KT 21/20 A2995 RMK A01 T02080198  RH  094%=      5-min Rain = 0
KCA1 262158Z 17014KT 21/20 A2995 RMK A01 T02090199  RH  094%=      5-min Rain = 0
KCA1 262159Z 17014KT 21/20 A2995 RMK A01 T02090199  RH  094%=      5-min Rain = 0
KCA1 262200Z 17012KT 21/20 A2995 RMK A01 T02090199  RH  094%=      5-min Rain = 0
KCA1 262201Z 17014KT 21/20 A2995 RMK A01 T02090199  RH  094%=      5-min Rain = 0
KCA1 262202Z 17014KT 21/20 A2995 RMK A01 T02090199  RH  094%=      5-min Rain = 0
KCA1 262203Z 17012KT 21/20 A2995 RMK A01 T02090200  RH  094%=      5-min Rain = 0
KCA1 262204Z 16010KT 21/20 A2995 RMK A01 T02090200  RH  095%=      5-min Rain = 0
KCA1 262205Z 15011KT 21/20 A2994 RMK A01 T02090201  RH  095%=      5-min Rain = 0
KCA1 262206Z 15013KT 21/20 A2994 RMK A01 T02090201  RH  095%=      5-min Rain = 0
KCA1 262207Z 16013KT 21/20 A2994 RMK A01 T02100201  RH  095%=      5-min Rain = 0
KCA1 262208Z 16011KT 21/20 A2994 RMK A01 T02100202  RH  095%=      5-min Rain = 0
KCA1 262209Z 16011KT 21/20 A2994 RMK A01 T02110202  RH  095%=      5-min Rain = 0
KCA1 262210Z 17011KT 21/20 A2995 RMK A01 T02110202  RH  094%=      5-min Rain = 0
KCA1 262211Z 17011KT 21/20 A2995 RMK A01 T02120202  RH  094%=      5-min Rain = 0
KCA1 262212Z 16011KT 21/20 A2995 RMK A01 T02120202  RH  094%=      5-min Rain = 0
KCA1 262213Z 17012KT 21/20 A2995 RMK A01 T02120202  RH  094%=      5-min Rain = 0
KCA1 262214Z 17013KT 21/20 A2994 RMK A01 T02120202  RH  094%=      5-min Rain = 0
KCA1 262215Z 17012KT 21/20 A2994 RMK A01 T02120201  RH  094%=      5-min Rain = 0
KCA1 262216Z 17014KT 21/20 A2994 RMK A01 T02120201  RH  094%=      5-min Rain = 0
KCA1 262217Z 17016KT 21/20 A2994 RMK A01 T02120201  RH  094%=      5-min Rain = 0
KCA1 262218Z 16013G18KT 21/20 A2994 RMK A01 T02120201  RH  094%=      5-min Rain = 0
KCA1 262219Z 16013KT 21/20 A2994 RMK A01 T02120202  RH  094%=      5-min Rain = 0
KCA1 262220Z 16010KT 21/20 A2994 RMK A01 T02120202  RH  094%=      5-min Rain = 0
KCA1 262221Z 17009KT 21/20 A2994 RMK A01 T02120203  RH  094%=      5-min Rain = 0
KCA1 262222Z 16012G17KT 21/20 A2994 RMK A01 T02130203  RH  094%=      5-min Rain = 0
KCA1 262223Z 16016KT 21/20 A2994 RMK A01 T02130202  RH  094%=      5-min Rain = 0
KCA1 262224Z 16016KT 21/20 A2994 RMK A01 T02130201  RH  093%=      5-min Rain = 0
KCA1 262225Z 16015KT 21/20 A2994 RMK A01 T02130201  RH  093%=      5-min Rain = 0
KCA1 262226Z 16014KT 21/20 A2994 RMK A01 T02130201  RH  093%=      5-min Rain = 0
KCA1 262227Z 16013KT 21/20 A2994 RMK A01 T02130201  RH  093%=      5-min Rain = 0
KCA1 262228Z 16014KT 21/20 A2993 RMK A01 T02130201  RH  093%=      5-min Rain = 0
KCA1 262229Z 16014KT 21/20 A2993 RMK A01 T02130202  RH  093%=      5-min Rain = 0
KCA1 262230Z 16011KT 21/20 A2993 RMK A01 T02130202  RH  093%=      5-min Rain = 0
KCA1 262231Z 16011KT 21/20 A2993 RMK A01 T02130203  RH  094%=      5-min Rain = 0
KCA1 262232Z 16012KT 21/20 A2993 RMK A01 T02130202  RH  093%=      5-min Rain = 0
KCA1 262233Z 16012KT 21/20 A2993 RMK A01 T02140203  RH  093%=      5-min Rain = 0
KCA1 262234Z 16010KT 21/20 A2993 RMK A01 T02140202  RH  093%=      5-min Rain = 0
KCA1 262235Z 16012KT 21/20 A2993 RMK A01 T02140203  RH  093%=      5-min Rain = 0
KCA1 262236Z 16011KT 21/20 A2993 RMK A01 T02140203  RH  093%=      5-min Rain = 0
KCA1 262237Z 16010KT 21/20 A2993 RMK A01 T02140203  RH  093%=      5-min Rain = 0
KCA1 262238Z 16010KT 21/20 A2993 RMK A01 T02140203  RH  094%=      5-min Rain = 0
KCA1 262239Z 16010KT 21/20 A2993 RMK A01 T02140204  RH  094%=      5-min Rain = 0
KCA1 262240Z 16012KT 21/20 A2993 RMK A01 T02140204  RH  094%=      5-min Rain = 0
KCA1 262241Z 16012KT 21/20 A2993 RMK A01 T02140203  RH  093%=      5-min Rain = 0
KCA1 262242Z 17012KT 21/20 A2993 RMK A01 T02140203  RH  093%=      5-min Rain = 0
KCA1 262243Z 16013KT 21/20 A2993 RMK A01 T02140203  RH  093%=      5-min Rain = 0
KCA1 262244Z 16015KT 21/20 A2993 RMK A01 T02140202  RH  093%=      5-min Rain = 0
KCA1 262245Z 16013KT 21/20 A2993 RMK A01 T02140202  RH  093%=      5-min Rain = 0
KCA1 262246Z 16015KT 21/20 A2993 RMK A01 T02140202  RH  093%=      5-min Rain = 0
KCA1 262247Z 16014KT 21/20 A2993 RMK A01 T02140201  RH  092%=      5-min Rain = 0
KCA1 262248Z 16013KT 22/20 A2993 RMK A01 T02150201  RH  092%=      5-min Rain = 0
KCA1 262249Z 16014KT 22/20 A2992 RMK A01 T02150201  RH  092%=      5-min Rain = 0
KCA1 262250Z 15012KT 22/20 A2992 RMK A01 T02150201  RH  092%=      5-min Rain = 0
KCA1 262251Z 16013KT 22/20 A2992 RMK A01 T02150202  RH  092%=      5-min Rain = 0
KCA1 262252Z 15013KT 22/20 A2992 RMK A01 T02150201  RH  092%=      5-min Rain = 0
KCA1 262253Z 15014KT 22/20 A2992 RMK A01 T02150201  RH  092%=      5-min Rain = 0
KCA1 262254Z 15013KT 22/20 A2992 RMK A01 T02150201  RH  092%=      5-min Rain = 0
KCA1 262255Z 15012KT 22/20 A2992 RMK A01 T02150202  RH  092%=      5-min Rain = 0
KCA1 262256Z 15014KT 22/20 A2992 RMK A01 T02150201  RH  092%=      5-min Rain = 0
KCA1 262257Z 15015KT 22/20 A2992 RMK A01 T02150201  RH  092%=      5-min Rain = 0
KCA1 262258Z 15017KT 21/20 A2992 RMK A01 T02140200  RH  091%=      5-min Rain = 0
KCA1 262259Z 15017KT 21/20 A2991 RMK A01 T02140199  RH  091%=      5-min Rain = 0
KCA1 262300Z 15015KT 21/20 A2991 RMK A01 T02140199  RH  091%=      5-min Rain = 0
KCA1 262301Z 16016G21KT 22/20 A2991 RMK A01 T02150199  RH  091%=      5-min Rain = 0
KCA1 262302Z 15015KT 22/20 A2991 RMK A01 T02150199  RH  091%=      5-min Rain = 0
KCA1 262303Z 15013KT 22/20 A2991 RMK A01 T02150200  RH  091%=      5-min Rain = 0
KCA1 262304Z 15010KT 22/20 A2991 RMK A01 T02150201  RH  092%=      5-min Rain = 0
KCA1 262305Z 14010KT 22/20 A2991 RMK A01 T02150201  RH  092%=      5-min Rain = 0
KCA1 262306Z 14011KT 22/20 A2991 RMK A01 T02150202  RH  092%=      5-min Rain = 0
KCA1 262307Z 15013KT 22/20 A2991 RMK A01 T02150202  RH  092%=      5-min Rain = 0
KCA1 262308Z 14012KT 22/20 A2991 RMK A01 T02150202  RH  092%=      5-min Rain = 0
KCA1 262309Z 14016KT 21/20 A299 RMK A01 T02140201  RH  092%=      5-min Rain = 0
KCA1 262310Z 14016KT 22/20 A299 RMK A01 T02150201  RH  092%=      5-min Rain = 0
KCA1 262311Z 13016KT 22/20 A299 RMK A01 T02150201  RH  092%=      5-min Rain = 0
KCA1 262312Z 14016KT 21/20 A299 RMK A01 T02140200  RH  092%=      5-min Rain = 0
KCA1 262313Z 14015KT 21/20 A299 RMK A01 T02140200  RH  092%=      5-min Rain = 0
KCA1 262314Z 14014KT 21/20 A299 RMK A01 T02140200  RH  092%=      5-min Rain = 0
KCA1 262315Z 14014KT 21/20 A299 RMK A01 T02140201  RH  092%=      5-min Rain = 0
KCA1 262316Z 13013KT 21/20 A299 RMK A01 T02140201  RH  092%=      5-min Rain = 0
KCA1 262317Z 14016G22KT 21/20 A2989 RMK A01 T02140201  RH  092%=      5-min Rain = 0
KCA1 262318Z 14014KT 21/20 A299 RMK A01 T02140200  RH  092%=      5-min Rain = 0
KCA1 262319Z 13012KT 21/20 A299 RMK A01 T02140201  RH  092%=      5-min Rain = 0
KCA1 262320Z 13010KT 21/20 A2989 RMK A01 T02140201  RH  092%=      5-min Rain = 0
KCA1 262321Z 14012KT 21/20 A2989 RMK A01 T02140202  RH  093%=      5-min Rain = 0
KCA1 262322Z 13017KT 21/20 A2989 RMK A01 T02140202  RH  093%=      5-min Rain = 0
KCA1 262323Z 13016KT 21/20 A2989 RMK A01 T02140200  RH  092%=      5-min Rain = 0
KCA1 262324Z 13017KT 21/20 A2989 RMK A01 T02140200  RH  092%=      5-min Rain = 0
KCA1 262325Z 13017KT 21/20 A2989 RMK A01 T02140200  RH  092%=      5-min Rain = 0
KCA1 262326Z 14018KT 21/20 A2989 RMK A01 T02140200  RH  092%=      5-min Rain = 0
KCA1 262327Z 14018KT 21/20 A2989 RMK A01 T02140200  RH  092%=      5-min Rain = 0
KCA1 262328Z 13015KT 21/20 A2988 RMK A01 T02140200  RH  092%=      5-min Rain = 0
KCA1 262329Z 13015KT 21/20 A2988 RMK A01 T02130201  RH  092%=      5-min Rain = 0
KCA1 262330Z 13017KT 21/20 A2988 RMK A01 T02130201  RH  093%=      5-min Rain = 0
KCA1 262331Z 13014KT 21/20 A2988 RMK A01 T02130201  RH  093%=      5-min Rain = 0
KCA1 262332Z 13016KT 21/20 A2988 RMK A01 T02130201  RH  093%=      5-min Rain = 0
KCA1 262333Z 13017KT 21/20 A2988 RMK A01 T02130201  RH  093%=      5-min Rain = 0
KCA1 262334Z 13017KT 21/20 A2988 RMK A01 T02130201  RH  093%=      5-min Rain = 0
KCA1 262335Z 13015KT 21/20 A2987 RMK A01 T02130201  RH  093%=      5-min Rain = 0
KCA1 262336Z 13015G20KT 21/20 A2987 RMK A01 T02130201  RH  093%=      5-min Rain = 0
KCA1 262337Z 13013G18KT 21/20 A2987 RMK A01 T02130201  RH  093%=      5-min Rain = 0
KCA1 262338Z 13015KT 21/20 A2987 RMK A01 T02130201  RH  093%=      5-min Rain = 0
KCA1 262339Z 13012KT 21/20 A2987 RMK A01 T02130201  RH  093%=      5-min Rain = 0
KCA1 262340Z 13012KT 21/20 A2987 RMK A01 T02130201  RH  093%=      5-min Rain = 0
KCA1 262341Z 13014KT 21/20 A2986 RMK A01 T02130201  RH  093%=      5-min Rain = 0
KCA1 262342Z 13012KT 21/20 A2986 RMK A01 T02130200  RH  092%=      5-min Rain = 0
KCA1 262343Z 13015KT 21/20 A2986 RMK A01 T02130200  RH  092%=      5-min Rain = 0
KCA1 262344Z 13015KT 21/20 A2986 RMK A01 T02130200  RH  092%=      5-min Rain = 0
KCA1 262345Z 14015KT 21/20 A2986 RMK A01 T02140201  RH  092%=      5-min Rain = 0
KCA1 262346Z 14014KT 21/20 A2986 RMK A01 T02140200  RH  092%=      5-min Rain = 0
KCA1 262347Z 13014KT 21/20 A2986 RMK A01 T02140201  RH  092%=      5-min Rain = 0
KCA1 262348Z 13016KT 22/20 A2986 RMK A01 T02150201  RH  092%=      5-min Rain = 0
KCA1 262349Z 13014KT 22/20 A2986 RMK A01 T02150200  RH  091%=      5-min Rain = 0
KCA1 262350Z 12013G19KT 22/20 A2986 RMK A01 T02150201  RH  092%=      5-min Rain = 0
KCA1 262351Z 12016KT 22/20 A2986 RMK A01 T02150201  RH  091%=      5-min Rain = 0
KCA1 262352Z 12017KT 22/20 A2986 RMK A01 T02150200  RH  091%=      5-min Rain = 0
KCA1 262353Z 12014KT 22/20 A2986 RMK A01 T02150200  RH  091%=      5-min Rain = 0
KCA1 262354Z 13016KT 22/20 A2986 RMK A01 T02160201  RH  091%=      5-min Rain = 0
KCA1 262355Z 13016KT 22/20 A2986 RMK A01 T02150200  RH  091%=      5-min Rain = 0
KCA1 262356Z 13015KT 22/20 A2986 RMK A01 T02150200  RH  091%=      5-min Rain = 0
KCA1 262357Z 13014KT 22/20 A2986 RMK A01 T02150200  RH  091%=      5-min Rain = 0
KCA1 262358Z 14013KT 22/20 A2986 RMK A01 T02150200  RH  091%=      5-min Rain = 0
KCA1 262359Z 14013KT 22/20 A2987 RMK A01 T02160200  RH  091%=      5-min Rain = 0
KCA1 270000Z 15011G16KT 22/20 A2987 RMK A01 T02150201  RH  091%=      5-min Rain = 0
KCA1 270001Z 15014KT 22/20 A2987 RMK A01 T02150200  RH  091%=      5-min Rain = 0
KCA1 270002Z 15015KT 22/20 A2987 RMK A01 T02150200  RH  091%=      5-min Rain = 0
KCA1 270003Z 15012KT 22/20 A2987 RMK A01 T02150200  RH  091%=      5-min Rain = 0
KCA1 270004Z 15012KT 22/20 A2987 RMK A01 T02160201  RH  091%=      5-min Rain = 0
KCA1 270005Z 15013G18KT 22/20 A2987 RMK A01 T02150200  RH  091%=      5-min Rain = 0
KCA1 270006Z 16012KT 22/20 A2987 RMK A01 T02150201  RH  091%=      5-min Rain = 0
KCA1 270007Z 15013KT 22/20 A2987 RMK A01 T02150200  RH  091%=      5-min Rain = 0
KCA1 270008Z 15012KT 22/20 A2987 RMK A01 T02150200  RH  091%=      5-min Rain = 0
KCA1 270009Z 15011KT 22/20 A2987 RMK A01 T02150201  RH  092%=      5-min Rain = 0
KCA1 270010Z 15010G16KT 22/20 A2987 RMK A01 T02150201  RH  092%=      5-min Rain = 0
KCA1 270011Z 14012KT 21/20 A2987 RMK A01 T02140201  RH  092%=      5-min Rain = 0
KCA1 270012Z 15014KT 21/20 A2987 RMK A01 T02140201  RH  092%=      5-min Rain = 0
KCA1 270013Z 15012KT 21/20 A2987 RMK A01 T02140201  RH  092%=      5-min Rain = 0
KCA1 270014Z 15011KT 21/20 A2987 RMK A01 T02140201  RH  092%=      5-min Rain = 0
KCA1 270015Z 14014KT 21/20 A2987 RMK A01 T02140201  RH  092%=      5-min Rain = 0
KCA1 270016Z 14013KT 21/20 A2987 RMK A01 T02140201  RH  092%=      5-min Rain = 0
KCA1 270017Z 14011KT 21/20 A2987 RMK A01 T02140201  RH  092%=      5-min Rain = 0
KCA1 270018Z 14012KT 21/20 A2987 RMK A01 T02140201  RH  092%=      5-min Rain = 0
KCA1 270019Z 13012KT 21/20 A2987 RMK A01 T02130201  RH  092%=      5-min Rain = 0
KCA1 270020Z 14009KT 21/20 A2987 RMK A01 T02140201  RH  092%=      5-min Rain = 0
KCA1 270021Z 14016KT 21/20 A2986 RMK A01 T02130201  RH  093%=      5-min Rain = 0
KCA1 270022Z 14016KT 21/20 A2986 RMK A01 T02140201  RH  092%=      5-min Rain = 0
KCA1 270023Z 14015KT 21/20 A2986 RMK A01 T02140201  RH  092%=      5-min Rain = 0
KCA1 270024Z 15013KT 21/20 A2986 RMK A01 T02130201  RH  092%=      5-min Rain = 0
KCA1 270025Z 14011KT 21/20 A2987 RMK A01 T02130201  RH  093%=      5-min Rain = 0
KCA1 270026Z 15013KT 21/20 A2986 RMK A01 T02140202  RH  093%=      5-min Rain = 0
KCA1 270027Z 14011KT 21/20 A2986 RMK A01 T02130201  RH  093%=      5-min Rain = 0
KCA1 270028Z 15009G14KT 21/20 A2986 RMK A01 T02130202  RH  093%=      5-min Rain = 0
KCA1 270029Z 14012KT 21/20 A2986 RMK A01 T02130202  RH  093%=      5-min Rain = 0
KCA1 270030Z 15010KT 21/20 A2986 RMK A01 T02130202  RH  093%=      5-min Rain = 0
KCA1 270031Z 15009G14KT 21/20 A2987 RMK A01 T02130202  RH  093%=      5-min Rain = 0
KCA1 270032Z 14009G14KT 21/20 A2987 RMK A01 T02130202  RH  094%=      5-min Rain = 0
KCA1 270033Z 14012KT 21/20 A2986 RMK A01 T02130202  RH  094%=      5-min Rain = 0
KCA1 270034Z 14011KT 21/20 A2986 RMK A01 T02130202  RH  094%=      5-min Rain = 0
KCA1 270035Z 13011KT 21/20 A2986 RMK A01 T02130202  RH  094%=      5-min Rain = 0
KCA1 270036Z 13011KT 21/20 A2986 RMK A01 T02130202  RH  094%=      5-min Rain = 0
KCA1 270037Z 13013KT 21/20 A2985 RMK A01 T02130202  RH  094%=      5-min Rain = 0
KCA1 270038Z 13013KT 21/20 A2985 RMK A01 T02130202  RH  094%=      5-min Rain = 0
KCA1 270039Z 13014KT 21/20 A2985 RMK A01 T02130202  RH  093%=      5-min Rain = 0
KCA1 270040Z 13012KT 21/20 A2985 RMK A01 T02130202  RH  093%=      5-min Rain = 0
KCA1 270041Z 13015KT 21/20 A2985 RMK A01 T02130202  RH  093%=      5-min Rain = 0
KCA1 270042Z 13013KT 21/20 A2985 RMK A01 T02130202  RH  093%=      5-min Rain = 0
KCA1 270043Z 13011KT 21/20 A2984 RMK A01 T02140202  RH  093%=      5-min Rain = 0
KCA1 270044Z 12010KT 21/20 A2984 RMK A01 T02140203  RH  093%=      5-min Rain = 0
KCA1 270045Z 13013KT 21/20 A2984 RMK A01 T02140203  RH  094%=      5-min Rain = 0
KCA1 270046Z 12012KT 21/20 A2984 RMK A01 T02140203  RH  093%=      5-min Rain = 0
KCA1 270047Z 12012KT 21/20 A2984 RMK A01 T02140203  RH  093%=      5-min Rain = 0
KCA1 270048Z 12012KT 21/20 A2984 RMK A01 T02140203  RH  093%=      5-min Rain = 0
KCA1 270049Z 12015KT 21/20 A2983 RMK A01 T02140203  RH  093%=      5-min Rain = 0
KCA1 270050Z 12014KT 22/20 A2983 RMK A01 T02150203  RH  093%=      5-min Rain = 0
KCA1 270051Z 12013KT 21/20 A2983 RMK A01 T02140203  RH  093%=      5-min Rain = 0
KCA1 270052Z 12015KT 22/20 A2983 RMK A01 T02150203  RH  093%=      5-min Rain = 0
KCA1 270053Z 11014G19KT 22/20 A2983 RMK A01 T02150203  RH  093%=      5-min Rain = 0
KCA1 270054Z 12014KT 22/20 A2983 RMK A01 T02150203  RH  093%=      5-min Rain = 0
KCA1 270055Z 11016KT 22/20 A2982 RMK A01 T02160203  RH  092%=      5-min Rain = 0
KCA1 270056Z 12015KT 22/20 A2982 RMK A01 T02160203  RH  092%=      5-min Rain = 0
KCA1 270057Z 11017KT 22/20 A2981 RMK A01 T02170203  RH  092%=      5-min Rain = 0
KCA1 270058Z 11016KT 22/20 A298 RMK A01 T02170202  RH  091%=      5-min Rain = 0
KCA1 270059Z 11019G24KT 22/20 A2979 RMK A01 T02180203  RH  091%=      5-min Rain = 0
KCA1 270100Z 11021KT 22/20 A2978 RMK A01 T02190202  RH  090%=      5-min Rain = 0
KCA1 270101Z 10019KT 22/20 A2977 RMK A01 T02190202  RH  090%=      5-min Rain = 0
KCA1 270102Z 10019G24KT 22/20 A2977 RMK A01 T02200202  RH  090%=      5-min Rain = 0
KCA1 270103Z 10017KT 22/20 A2977 RMK A01 T02200202  RH  090%=      5-min Rain = 0
KCA1 270104Z 11019G25KT 22/20 A2978 RMK A01 T02200202  RH  089%=      5-min Rain = 0
KCA1 270105Z 12017KT 22/20 A2979 RMK A01 T02200202  RH  089%=      5-min Rain = 0
KCA1 270106Z 12017G22KT 22/20 A2979 RMK A01 T02200202  RH  089%=      5-min Rain = 0
KCA1 270107Z 12016G21KT 22/20 A2979 RMK A01 T02200202  RH  089%=      5-min Rain = 0
KCA1 270108Z 12018KT 22/20 A298 RMK A01 T02200202  RH  089%=      5-min Rain = 0
KCA1 270109Z 12016KT 22/20 A298 RMK A01 T02200202  RH  089%=      5-min Rain = 0
KCA1 270110Z 12018KT 22/20 A298 RMK A01 T02200201  RH  089%=      5-min Rain = 0
KCA1 270111Z 12017G24KT 22/20 A298 RMK A01 T02200201  RH  089%=      5-min Rain = 0
KCA1 270112Z 12017KT 22/20 A2979 RMK A01 T02200201  RH  089%=      5-min Rain = 0
KCA1 270113Z 12017G23KT 22/20 A2979 RMK A01 T02190201  RH  089%=      5-min Rain = 0
KCA1 270114Z 12019KT 22/20 A2979 RMK A01 T02190201  RH  090%=      5-min Rain = 0
KCA1 270115Z 12019KT 22/20 A2979 RMK A01 T02190201  RH  089%=      5-min Rain = 0
KCA1 270116Z 12019KT 22/20 A2979 RMK A01 T02190200  RH  089%=      5-min Rain = 0
KCA1 270117Z 12018G24KT 22/20 A2979 RMK A01 T02180200  RH  090%=      5-min Rain = 0
KCA1 270118Z 13018KT 22/20 A2979 RMK A01 T02180200  RH  090%=      5-min Rain = 0
KCA1 270119Z 13017KT 22/20 A2979 RMK A01 T02180200  RH  090%=      5-min Rain = 0
KCA1 270120Z 13019KT 22/20 A2979 RMK A01 T02170200  RH  090%=      5-min Rain = 0
KCA1 270121Z 13019G26KT 22/20 A2979 RMK A01 T02170200  RH  090%=      5-min Rain = 0
KCA1 270122Z 12016KT 22/20 A2979 RMK A01 T02170200  RH  090%=      5-min Rain = 0
KCA1 270123Z 12017G22KT 22/20 A2979 RMK A01 T02170200  RH  090%=      5-min Rain = 0
KCA1 270124Z 12016KT 22/20 A2979 RMK A01 T02160199  RH  090%=      5-min Rain = 0
KCA1 270125Z 12017G22KT 22/20 A2979 RMK A01 T02160200  RH  090%=      5-min Rain = 0
KCA1 270126Z 12018KT 22/20 A2979 RMK A01 T02160199  RH  090%=      5-min Rain = 0
KCA1 270127Z 12016KT 22/20 A2979 RMK A01 T02160200  RH  090%=      5-min Rain = 0
KCA1 270128Z 12017KT 22/20 A2979 RMK A01 T02160199  RH  090%=      5-min Rain = 0
KCA1 270129Z 11015KT 22/20 A2979 RMK A01 T02160199  RH  090%=      5-min Rain = 0
KCA1 270130Z 12016G21KT 22/20 A2979 RMK A01 T02160199  RH  090%=      5-min Rain = 0
KCA1 270131Z 11015G20KT 22/20 A2979 RMK A01 T02150199  RH  090%=      5-min Rain = 0
KCA1 270132Z 12014KT 22/20 A2979 RMK A01 T02150199  RH  090%=      5-min Rain = 0
KCA1 270133Z 13016KT 22/20 A2979 RMK A01 T02150199  RH  091%=      5-min Rain = 0
KCA1 270134Z 12016KT 22/20 A298 RMK A01 T02150199  RH  091%=      5-min Rain = 0
KCA1 270135Z 12015KT 22/20 A298 RMK A01 T02150199  RH  091%=      5-min Rain = 0
KCA1 270136Z 12014KT 22/20 A298 RMK A01 T02150199  RH  091%=      5-min Rain = 0
KCA1 270137Z 12012KT 22/20 A298 RMK A01 T02150199  RH  091%=      5-min Rain = 0
KCA1 270138Z 12014KT 22/20 A2981 RMK A01 T02150199  RH  091%=      5-min Rain = 0
KCA1 270139Z 13012KT 22/20 A2981 RMK A01 T02150200  RH  091%=      5-min Rain = 0
KCA1 270140Z 13013KT 21/20 A2981 RMK A01 T02140199  RH  091%=      5-min Rain = 0
KCA1 270141Z 13015KT 21/20 A2982 RMK A01 T02140199  RH  091%=      5-min Rain = 0
KCA1 270142Z 13013KT 21/20 A2982 RMK A01 T02140199  RH  091%=      5-min Rain = 0
KCA1 270143Z 13013KT 21/20 A2982 RMK A01 T02140199  RH  091%=      5-min Rain = 0
KCA1 270144Z 13012KT 21/20 A2982 RMK A01 T02140200  RH  091%=      5-min Rain = 0
KCA1 270145Z 13012KT 21/20 A2982 RMK A01 T02140199  RH  092%=      5-min Rain = 0
KCA1 270146Z 13012KT 21/20 A2982 RMK A01 T02140199  RH  092%=      5-min Rain = 0
KCA1 270147Z 13011KT 21/20 A2982 RMK A01 T02130199  RH  092%=      5-min Rain = 0
KCA1 270148Z 13013KT 21/20 A2983 RMK A01 T02140200  RH  092%=      5-min Rain = 0
KCA1 270149Z 14014KT 21/20 A2983 RMK A01 T02130200  RH  092%=      5-min Rain = 0
KCA1 270150Z 13014KT 21/20 A2983 RMK A01 T02140199  RH  092%=      5-min Rain = 0
KCA1 270151Z 13014KT 21/20 A2983 RMK A01 T02140199  RH  091%=      5-min Rain = 0
KCA1 270152Z 14011KT 21/20 A2983 RMK A01 T02140199  RH  091%=      5-min Rain = 0
KCA1 270153Z 14012KT 22/20 A2983 RMK A01 T02150199  RH  091%=      5-min Rain = 0
KCA1 270154Z 14013KT 21/20 A2983 RMK A01 T02140199  RH  091%=      5-min Rain = 0
KCA1 270155Z 14012KT 22/20 A2983 RMK A01 T02150200  RH  091%=      5-min Rain = 0
KCA1 270156Z 14012KT 21/20 A2984 RMK A01 T02140200  RH  091%=      5-min Rain = 0
KCA1 270157Z 14013KT 21/20 A2984 RMK A01 T02140200  RH  091%=      5-min Rain = 0
KCA1 270158Z 14016KT 21/20 A2984 RMK A01 T02140200  RH  091%=      5-min Rain = 0
KCA1 270159Z 14015KT 21/20 A2984 RMK A01 T02140200  RH  091%=      5-min Rain = 0
KCA1 270200Z 14012KT 22/20 A2984 RMK A01 T02150200  RH  091%=      5-min Rain = 0
KCA1 270201Z 14013KT 21/20 A2984 RMK A01 T02140200  RH  091%=      5-min Rain = 0
KCA1 270202Z 14013KT 21/20 A2984 RMK A01 T02140200  RH  092%=      5-min Rain = 0
KCA1 270203Z 14014KT 21/20 A2983 RMK A01 T02140201  RH  092%=      5-min Rain = 0
KCA1 270204Z 14014KT 21/20 A2983 RMK A01 T02130200  RH  092%=      5-min Rain = 0
KCA1 270205Z 15014KT 21/20 A2983 RMK A01 T02140200  RH  092%=      5-min Rain = 0
KCA1 270206Z 14014KT 21/20 A2983 RMK A01 T02140200  RH  092%=      5-min Rain = 0
KCA1 270207Z 14015KT 21/20 A2983 RMK A01 T02140200  RH  092%=      5-min Rain = 0
KCA1 270208Z 15013KT 21/20 A2983 RMK A01 T02140200  RH  092%=      5-min Rain = 0
KCA1 270209Z 14012KT 22/20 A2984 RMK A01 T02150201  RH  092%=      5-min Rain = 0
KCA1 270210Z 15014KT 21/20 A2984 RMK A01 T02140201  RH  092%=      5-min Rain = 0
KCA1 270211Z 15015KT 21/20 A2984 RMK A01 T02140201  RH  092%=      5-min Rain = 0
KCA1 270212Z 14012KT 21/20 A2984 RMK A01 T02140201  RH  092%=      5-min Rain = 0
KCA1 270213Z 14014KT 21/20 A2984 RMK A01 T02140201  RH  092%=      5-min Rain = 0
KCA1 270214Z 14012KT 21/20 A2984 RMK A01 T02140201  RH  092%=      5-min Rain = 0
KCA1 270215Z 15015KT 21/20 A2984 RMK A01 T02140201  RH  092%=      5-min Rain = 0
KCA1 270216Z 14015KT 21/20 A2984 RMK A01 T02140201  RH  092%=      5-min Rain = 0
KCA1 270217Z 14014KT 22/20 A2984 RMK A01 T02150201  RH  092%=      5-min Rain = 0
KCA1 270218Z 14012KT 22/20 A2984 RMK A01 T02150201  RH  092%=      5-min Rain = 0
KCA1 270219Z 15012KT 22/20 A2984 RMK A01 T02150201  RH  092%=      5-min Rain = 0
KCA1 270220Z 14013KT 22/20 A2984 RMK A01 T02150201  RH  092%=      5-min Rain = 0
KCA1 270221Z 14013KT 22/20 A2984 RMK A01 T02150202  RH  092%=      5-min Rain = 0
KCA1 270222Z 14011KT 21/20 A2984 RMK A01 T02140202  RH  092%=      5-min Rain = 0
KCA1 270223Z 14011KT 22/20 A2984 RMK A01 T02150202  RH  092%=      5-min Rain = 0
KCA1 270224Z 14013KT 21/20 A2984 RMK A01 T02140202  RH  092%=      5-min Rain = 0
KCA1 270225Z 14012KT 22/20 A2984 RMK A01 T02150202  RH  092%=      5-min Rain = 0
KCA1 270226Z 14014KT 21/20 A2984 RMK A01 T02140202  RH  092%=      5-min Rain = 0
KCA1 270227Z 15012KT 22/20 A2984 RMK A01 T02150202  RH  092%=      5-min Rain = 0
KCA1 270228Z 15013G18KT 22/20 A2984 RMK A01 T02150202  RH  092%=      5-min Rain = 0
KCA1 270229Z 14013KT 22/20 A2984 RMK A01 T02150202  RH  092%=      5-min Rain = 0
KCA1 270230Z 15011KT 22/20 A2984 RMK A01 T02160202  RH  092%=      5-min Rain = 0
KCA1 270231Z 15012KT 22/20 A2984 RMK A01 T02150202  RH  092%=      5-min Rain = 0
KCA1 270232Z 15013KT 22/20 A2985 RMK A01 T02150202  RH  092%=      5-min Rain = 0
KCA1 270233Z 15014KT 22/20 A2985 RMK A01 T02150202  RH  092%=      5-min Rain = 0
KCA1 270234Z 15013KT 22/20 A2985 RMK A01 T02160202  RH  092%=      5-min Rain = 0
KCA1 270235Z 15014KT 22/20 A2985 RMK A01 T02160203  RH  092%=      5-min Rain = 0
KCA1 270236Z 15014KT 22/20 A2985 RMK A01 T02160203  RH  092%=      5-min Rain = 0
KCA1 270237Z 15011KT 22/20 A2985 RMK A01 T02160203  RH  092%=      5-min Rain = 0
KCA1 270238Z 15012KT 22/20 A2984 RMK A01 T02160203  RH  092%=      5-min Rain = 0
KCA1 270239Z 16014KT 22/20 A2985 RMK A01 T02160203  RH  092%=      5-min Rain = 0
KCA1 270240Z 15015KT 22/20 A2985 RMK A01 T02160203  RH  092%=      5-min Rain = 0
KCA1 270241Z 15012KT 22/20 A2985 RMK A01 T02160203  RH  092%=      5-min Rain = 0
KCA1 270242Z 15014KT 22/20 A2985 RMK A01 T02160203  RH  092%=      5-min Rain = 0
KCA1 270243Z 16013KT 22/20 A2985 RMK A01 T02170203  RH  092%=      5-min Rain = 0
KCA1 270244Z 16010KT 22/20 A2986 RMK A01 T02170203  RH  092%=      5-min Rain = 0
KCA1 270245Z 16014KT 22/20 A2986 RMK A01 T02170203  RH  092%=      5-min Rain = 0
KCA1 270246Z 16014G19KT 22/20 A2986 RMK A01 T02170203  RH  092%=      5-min Rain = 0
KCA1 270247Z 16014KT 22/20 A2986 RMK A01 T02170203  RH  092%=      5-min Rain = 0
KCA1 270248Z 16015KT 22/20 A2986 RMK A01 T02170203  RH  092%=      5-min Rain = 0
KCA1 270249Z 16015KT 22/20 A2986 RMK A01 T02170203  RH  091%=      5-min Rain = 0
KCA1 270250Z 16015KT 22/20 A2986 RMK A01 T02180203  RH  091%=      5-min Rain = 0
KCA1 270251Z 16015KT 22/20 A2986 RMK A01 T02180203  RH  091%=      5-min Rain = 0
KCA1 270252Z 16016KT 22/20 A2986 RMK A01 T02180204  RH  092%=      5-min Rain = 0
KCA1 270253Z 16015KT 22/20 A2986 RMK A01 T02180203  RH  092%=      5-min Rain = 0
KCA1 270254Z 15013KT 22/20 A2986 RMK A01 T02180204  RH  092%=      5-min Rain = 0
KCA1 270255Z 16013G18KT 22/20 A2986 RMK A01 T02180204  RH  092%=      5-min Rain = 0
KCA1 270256Z 16015G20KT 22/20 A2986 RMK A01 T02170204  RH  092%=      5-min Rain = 0
KCA1 270257Z 16015KT 22/20 A2986 RMK A01 T02170204  RH  092%=      5-min Rain = 0
KCA1 270258Z 16014KT 22/20 A2986 RMK A01 T02170204  RH  092%=      5-min Rain = 0
KCA1 270259Z 16013KT 22/20 A2986 RMK A01 T02170204  RH  092%=      5-min Rain = 0
KCA1 270300Z 16014KT 22/20 A2986 RMK A01 T02170204  RH  092%=      5-min Rain = 0
KCA1 270301Z 17014KT 22/20 A2986 RMK A01 T02170204  RH  092%=      5-min Rain = 0
KCA1 270302Z 16017KT 22/20 A2986 RMK A01 T02170204  RH  092%=      5-min Rain = 0
KCA1 270303Z 16016KT 22/20 A2987 RMK A01 T02170204  RH  092%=      5-min Rain = 0
KCA1 270304Z 16015G20KT 22/20 A2987 RMK A01 T02170204  RH  092%=      5-min Rain = 0
KCA1 270305Z 16014KT 22/20 A2987 RMK A01 T02170204  RH  092%=      5-min Rain = 0
KCA1 270306Z 16014KT 22/20 A2987 RMK A01 T02170204  RH  092%=      5-min Rain = 0
KCA1 270307Z 16013KT 22/20 A2987 RMK A01 T02170204  RH  092%=      5-min Rain = 0
KCA1 270308Z 17015KT 22/21 A2987 RMK A01 T02170205  RH  092%=      5-min Rain = 0
KCA1 270309Z 16014KT 22/20 A2987 RMK A01 T02170204  RH  093%=      5-min Rain = 0
KCA1 270310Z 16014KT 22/20 A2987 RMK A01 T02170204  RH  093%=      5-min Rain = 0
KCA1 270311Z 16014KT 22/20 A2987 RMK A01 T02170204  RH  093%=      5-min Rain = 0
KCA1 270312Z 16014KT 22/21 A2987 RMK A01 T02170205  RH  093%=      5-min Rain = 0
KCA1 270313Z 16016KT 22/20 A2987 RMK A01 T02160204  RH  093%=      5-min Rain = 0
KCA1 270314Z 16014KT 22/20 A2987 RMK A01 T02170204  RH  093%=      5-min Rain = 0
KCA1 270315Z 16016KT 22/20 A2987 RMK A01 T02170204  RH  093%=      5-min Rain = 0
KCA1 270316Z 16014KT 22/20 A2987 RMK A01 T02170204  RH  093%=      5-min Rain = 0
KCA1 270317Z 16015KT 22/20 A2987 RMK A01 T02170204  RH  093%=      5-min Rain = 0
KCA1 270318Z 16013KT 22/20 A2987 RMK A01 T02170204  RH  093%=      5-min Rain = 0
KCA1 270319Z 16015KT 22/20 A2987 RMK A01 T02160204  RH  093%=      5-min Rain = 0
KCA1 270320Z 16014KT 22/20 A2987 RMK A01 T02160204  RH  093%=      5-min Rain = 0
KCA1 270321Z 17014KT 22/20 A2987 RMK A01 T02160204  RH  093%=      5-min Rain = 0
KCA1 270322Z 17015KT 22/20 A2987 RMK A01 T02160204  RH  093%=      5-min Rain = 0
KCA1 270323Z 16013KT 22/20 A2987 RMK A01 T02160204  RH  093%=      5-min Rain = 0
KCA1 270324Z 16014KT 22/20 A2987 RMK A01 T02160204  RH  093%=      5-min Rain = 0
KCA1 270325Z 16015KT 22/20 A2987 RMK A01 T02160204  RH  093%=      5-min Rain = 0
KCA1 270326Z 16014KT 22/20 A2987 RMK A01 T02160204  RH  093%=      5-min Rain = 0
KCA1 270327Z 17013G18KT 22/20 A2987 RMK A01 T02150204  RH  093%=      5-min Rain = 0
KCA1 270328Z 16014KT 22/20 A2987 RMK A01 T02150204  RH  093%=      5-min Rain = 0
KCA1 270329Z 16015KT 22/20 A2987 RMK A01 T02150204  RH  093%=      5-min Rain = 0
KCA1 270330Z 16014KT 22/20 A2987 RMK A01 T02150204  RH  093%=      5-min Rain = 0
KCA1 270331Z 16014KT 22/20 A2986 RMK A01 T02150204  RH  093%=      5-min Rain = 0
KCA1 270332Z 17016KT 22/20 A2986 RMK A01 T02150204  RH  093%=      5-min Rain = 0
KCA1 270333Z 16014KT 22/20 A2986 RMK A01 T02150204  RH  093%=      5-min Rain = 0
KCA1 270334Z 16014KT 22/20 A2986 RMK A01 T02150204  RH  093%=      5-min Rain = 0
KCA1 270335Z 16016KT 22/20 A2986 RMK A01 T02160204  RH  093%=      5-min Rain = 0
KCA1 270336Z 16014G19KT 22/20 A2986 RMK A01 T02150203  RH  093%=      5-min Rain = 0
KCA1 270337Z 16015KT 22/20 A2986 RMK A01 T02150204  RH  093%=      5-min Rain = 0
KCA1 270338Z 16014KT 22/20 A2986 RMK A01 T02150204  RH  093%=      5-min Rain = 0
KCA1 270339Z 16015G20KT 22/20 A2986 RMK A01 T02160204  RH  093%=      5-min Rain = 0
KCA1 270340Z 16013KT 22/20 A2986 RMK A01 T02160204  RH  093%=      5-min Rain = 0
KCA1 270341Z 16013KT 22/20 A2986 RMK A01 T02150204  RH  093%=      5-min Rain = 0
KCA1 270342Z 16013KT 22/20 A2986 RMK A01 T02150204  RH  093%=      5-min Rain = 0
KCA1 270343Z 16013KT 22/20 A2986 RMK A01 T02150204  RH  093%=      5-min Rain = 0
KCA1 270344Z 16015KT 22/20 A2986 RMK A01 T02150203  RH  093%=      5-min Rain = 0
KCA1 270345Z 16013KT 22/20 A2987 RMK A01 T02150203  RH  093%=      5-min Rain = 0
KCA1 270346Z 17012KT 22/20 A2987 RMK A01 T02150203  RH  093%=      5-min Rain = 0
KCA1 270347Z 17012KT 22/20 A2987 RMK A01 T02150203  RH  093%=      5-min Rain = 0
KCA1 270348Z 17011KT 22/20 A2988 RMK A01 T02150203  RH  093%=      5-min Rain = 0
KCA1 270349Z 17010KT 22/20 A2988 RMK A01 T02150204  RH  093%=      5-min Rain = 0
KCA1 270350Z 18010G15KT 22/20 A2988 RMK A01 T02150203  RH  093%=      5-min Rain = 0
KCA1 270351Z 18012KT 22/20 A2988 RMK A01 T02150204  RH  093%=      5-min Rain = 0
KCA1 270352Z 19010KT 22/20 A2988 RMK A01 T02150204  RH  093%=      5-min Rain = 0
KCA1 270353Z 19010KT 22/20 A2989 RMK A01 T02150203  RH  093%=      5-min Rain = 0
KCA1 270354Z 19009KT 22/20 A2989 RMK A01 T02150203  RH  093%=      5-min Rain = 0
KCA1 270355Z 20009KT 22/20 A2989 RMK A01 T02150203  RH  093%=      5-min Rain = 0
KCA1 270356Z 20008KT 22/20 A299 RMK A01 T02150203  RH  093%=      5-min Rain = 0
KCA1 270357Z 20009KT 22/20 A299 RMK A01 T02150203  RH  093%=      5-min Rain = 0
KCA1 270358Z 20010KT 22/20 A299 RMK A01 T02160203  RH  092%=      5-min Rain = 0
KCA1 270359Z 21010KT 22/20 A299 RMK A01 T02160203  RH  092%=      5-min Rain = 0
KCA1 270400Z 21009KT 22/20 A299 RMK A01 T02170203  RH  092%=      5-min Rain = 0
KCA1 270401Z 21009KT 22/20 A299 RMK A01 T02170203  RH  091%=      5-min Rain = 0
KCA1 270402Z 22009KT 22/20 A2991 RMK A01 T02170202  RH  091%=      5-min Rain = 0
KCA1 270403Z 23009KT 22/20 A2991 RMK A01 T02170202  RH  091%=      5-min Rain = 0
KCA1 270404Z 25009KT 22/20 A2992 RMK A01 T02180203  RH  091%=      5-min Rain = 0
KCA1 270405Z 27012KT 22/20 A2992 RMK A01 T02180203  RH  091%=      5-min Rain = 0
KCA1 270406Z 28013KT 22/20 A2992 RMK A01 T02180203  RH  091%=      5-min Rain = 0
KCA1 270407Z 29016KT 22/20 A2992 RMK A01 T02170202  RH  091%=      5-min Rain = 0
KCA1 270408Z 28013G18KT 22/19 A2991 RMK A01 T02160194  RH  087%=      5-min Rain = 0
KCA1 270409Z 27021G28KT 21/17 A2991 RMK A01 T02140174  RH  078%=      5-min Rain = 0
KCA1 270410Z 27024G30KT 21/15 A299 RMK A01 T02070145  RH  067%=      5-min Rain = 0
KCA1 270411Z 27022KT 20/14 A299 RMK A01 T02010139  RH  067%=      5-min Rain = 0
KCA1 270412Z 28019G24KT 20/14 A299 RMK A01 T01960138  RH  069%=      5-min Rain = 0
KCA1 270413Z 28020KT 19/14 A299 RMK A01 T01910140  RH  072%=      5-min Rain = 0
KCA1 270414Z 28017G22KT 19/14 A299 RMK A01 T01850143  RH  076%=      5-min Rain = 0
KCA1 270415Z 28016KT 18/14 A2989 RMK A01 T01800142  RH  079%=      5-min Rain = 0
KCA1 270416Z 29017G23KT 18/14 A2989 RMK A01 T01750144  RH  082%=      5-min Rain = 0
KCA1 270417Z 28017G22KT 17/14 A2989 RMK A01 T01720143  RH  083%=      5-min Rain = 0
KCA1 270418Z 28017KT 17/15 A299 RMK A01 T01700145  RH  085%=      5-min Rain = 0
KCA1 270419Z 29017KT 17/14 A299 RMK A01 T01670144  RH  086%=      5-min Rain = 0
KCA1 270420Z 29015KT 17/14 A2991 RMK A01 T01650144  RH  087%=      5-min Rain = 0
KCA1 270421Z 29017KT 16/14 A299 RMK A01 T01640144  RH  088%=      5-min Rain = 0
KCA1 270422Z 30016KT 16/14 A299 RMK A01 T01630144  RH  089%=      5-min Rain = 0
KCA1 270423Z 30015KT 16/14 A2989 RMK A01 T01620144  RH  089%=      5-min Rain = 0
KCA1 270424Z 29013KT 16/15 A299 RMK A01 T01610145  RH  090%=      5-min Rain = 0
KCA1 270425Z 28011KT 16/15 A299 RMK A01 T01610145  RH  091%=      5-min Rain = 0
KCA1 270426Z 27014KT 16/15 A299 RMK A01 T01600145  RH  091%=      5-min Rain = 0
KCA1 270427Z 27013KT 16/15 A2991 RMK A01 T01600146  RH  091%=      5-min Rain = 0
KCA1 270428Z 26016KT 16/15 A2991 RMK A01 T01600145  RH  091%=      5-min Rain = 0
KCA1 270429Z 26013KT 16/15 A2992 RMK A01 T01610146  RH  091%=      5-min Rain = 0
KCA1 270430Z 26014KT 16/15 A2991 RMK A01 T01610146  RH  091%=      5-min Rain = 0
KCA1 270431Z 27013G18KT 16/15 A2991 RMK A01 T01610146  RH  091%=      5-min Rain = 0
KCA1 270432Z 26015G20KT 16/15 A2992 RMK A01 T01600147  RH  092%=      5-min Rain = 0
KCA1 270433Z 25013KT 16/15 A2992 RMK A01 T01600147  RH  092%=      5-min Rain = 0
KCA1 270434Z 25017G22KT 16/15 A2993 RMK A01 T01600147  RH  092%=      5-min Rain = 0
KCA1 270435Z 24016KT 16/15 A2994 RMK A01 T01600147  RH  092%=      5-min Rain = 0
KCA1 270436Z 24012KT 16/15 A2994 RMK A01 T01610148  RH  092%=      5-min Rain = 0
KCA1 270437Z 24013G21KT 16/15 A2994 RMK A01 T01610148  RH  092%=      5-min Rain = 0
KCA1 270438Z 25014G21KT 16/15 A2993 RMK A01 T01610148  RH  092%=      5-min Rain = 0.02
KCA1 270439Z 27018G27KT 16/15 A2992 RMK A01 T01610148  RH  092%=      5-min Rain = 0
KCA1 270440Z 25025G36KT 16/15 A2991 RMK A01 T01600149  RH  093%=      5-min Rain = 0.01
KCA1 270441Z 26023G28KT 16/15 A2991 RMK A01 T01630149  RH  092%=      5-min Rain = 0.02
KCA1 270442Z 25025G30KT 16/15 A2991 RMK A01 T01640150  RH  091%=      5-min Rain = 0.02
KCA1 270443Z 24025KT 16/15 A2991 RMK A01 T01630151  RH  092%=      5-min Rain = 0
KCA1 270444Z 24017G24KT 16/15 A2991 RMK A01 T01630150  RH  092%=      5-min Rain = 0.02
KCA1 270445Z 24013G19KT 16/15 A2991 RMK A01 T01620151  RH  093%=      5-min Rain = 0
KCA1 270446Z 24017KT 16/15 A299 RMK A01 T01600150  RH  094%=      5-min Rain = 0
KCA1 270447Z 24014KT 16/15 A299 RMK A01 T01590149  RH  093%=      5-min Rain = 0.02
KCA1 270448Z 22011KT 16/15 A299 RMK A01 T01590148  RH  093%=      5-min Rain = 0.01
KCA1 270449Z 19007KT 16/15 A2989 RMK A01 T01580148  RH  093%=      5-min Rain = 0.01
KCA1 270450Z 15008KT 16/15 A2988 RMK A01 T01580149  RH  094%=      5-min Rain = 0.01
KCA1 270451Z 15008KT 16/15 A2988 RMK A01 T01580151  RH  096%=      5-min Rain = 0
KCA1 270452Z 17003KT 16/15 A2987 RMK A01 T01570152  RH  097%=      5-min Rain = 0.01
KCA1 270453Z 19006G11KT 16/15 A2987 RMK A01 T01560151  RH  097%=      5-min Rain = 0
KCA1 270454Z 20010KT 16/15 A2988 RMK A01 T01560148  RH  095%=      5-min Rain = 0
KCA1 270455Z 19010KT 16/15 A2988 RMK A01 T01570147  RH  094%=      5-min Rain = 0
KCA1 270456Z 18007KT 16/15 A2987 RMK A01 T01580148  RH  093%=      5-min Rain = 0
KCA1 270457Z 15005KT 16/15 A2986 RMK A01 T01580149  RH  094%=      5-min Rain = 0
KCA1 270458Z 13006KT 16/15 A2985 RMK A01 T01580148  RH  094%=      5-min Rain = 0.01
KCA1 270459Z 12006KT 16/15 A2986 RMK A01 T01580148  RH  094%=      5-min Rain = 0

Page generated in 0.0326 seconds.